Time,TemperatureF,DewpointF,PressureIn,WindDirection,WindDirectionDegrees,WindSpeedMPH,WindSpeedGustMPH,Humidity,HourlyPrecipIn,Conditions,Clouds,dailyrainin,SoftwareType,DateUTC
2013-04-22 00:00:00,58.5,13.8,30.00,NNE,22,9.4,11.0,17,0.00,,---,0.00,VWS V14.00,2013-04-22 07:00:00,
2013-04-22 00:01:00,58.5,13.8,30.00,NNE,22,7.2,9.2,17,0.00,,---,0.00,VWS V14.00,2013-04-22 07:01:00,
2013-04-22 00:02:00,58.5,13.8,30.00,NNE,22,7.2,9.2,17,0.00,,---,0.00,VWS V14.00,2013-04-22 07:02:00,
2013-04-22 00:04:00,58.3,13.7,30.00,NE,45,6.3,9.2,17,0.00,,---,0.00,VWS V14.00,2013-04-22 07:04:00,
2013-04-22 00:05:00,58.3,13.7,30.00,NNE,22,7.4,9.4,17,0.00,,---,0.00,VWS V14.00,2013-04-22 07:05:00,
2013-04-22 00:06:00,58.3,13.7,30.00,NNE,22,7.4,7.4,17,0.00,,---,0.00,VWS V14.00,2013-04-22 07:06:00,
2013-04-22 00:07:00,58.3,13.7,30.00,NNE,22,7.4,7.4,17,0.00,,---,0.00,VWS V14.00,2013-04-22 07:07:00,
2013-04-22 00:09:00,58.1,13.5,30.00,NNE,22,2.7,7.4,17,0.00,,---,0.00,VWS V14.00,2013-04-22 07:09:00,
2013-04-22 00:10:00,57.9,13.4,30.00,NE,45,3.8,7.4,17,0.00,,---,0.00,VWS V14.00,2013-04-22 07:10:00,
2013-04-22 00:12:00,57.9,13.4,30.00,NNE,22,4.9,5.8,17,0.00,,---,0.00,VWS V14.00,2013-04-22 07:12:00,
2013-04-22 00:14:00,57.4,12.9,30.00,NE,45,4.9,6.0,17,0.00,,---,0.00,VWS V14.00,2013-04-22 07:14:00,
2013-04-22 00:15:00,57.4,12.9,30.00,NNE,22,5.8,5.8,17,0.00,,---,0.00,VWS V14.00,2013-04-22 07:15:00,
2013-04-22 00:17:00,57.2,12.8,30.00,NE,45,4.9,5.8,17,0.00,,---,0.00,VWS V14.00,2013-04-22 07:17:00,
2013-04-22 00:20:00,57.2,12.8,30.00,NNE,22,4.9,6.3,17,0.00,,---,0.00,VWS V14.00,2013-04-22 07:20:00,
2013-04-22 00:21:00,57.2,12.8,30.00,NNE,22,5.8,6.3,17,0.00,,---,0.00,VWS V14.00,2013-04-22 07:21:00,
2013-04-22 00:22:00,57.2,12.8,30.00,NNE,22,5.8,6.5,17,0.00,,---,0.00,VWS V14.00,2013-04-22 07:22:00,
2013-04-22 00:25:00,57.2,12.8,30.00,NNE,22,6.0,7.4,17,0.00,,---,0.00,VWS V14.00,2013-04-22 07:25:00,
2013-04-22 00:26:00,57.2,12.8,30.00,NE,45,5.6,6.0,17,0.00,,---,0.00,VWS V14.00,2013-04-22 07:26:00,
2013-04-22 00:27:00,57.2,12.8,30.00,NNE,22,6.0,6.0,17,0.00,,---,0.00,VWS V14.00,2013-04-22 07:27:00,
2013-04-22 00:30:00,57.2,12.8,30.00,ENE,68,6.5,7.4,17,0.00,,---,0.00,VWS V14.00,2013-04-22 07:30:00,
2013-04-22 00:31:00,57.2,12.8,30.00,NE,45,8.1,8.1,17,0.00,,---,0.00,VWS V14.00,2013-04-22 07:31:00,
2013-04-22 00:32:00,57.2,12.8,30.00,NNE,22,5.8,8.1,17,0.00,,---,0.00,VWS V14.00,2013-04-22 07:32:00,
2013-04-22 00:33:00,57.2,12.8,30.00,NNE,22,6.7,8.1,17,0.00,,---,0.00,VWS V14.00,2013-04-22 07:33:00,
2013-04-22 00:35:00,57.2,12.8,30.00,NNE,22,4.0,8.1,17,0.00,,---,0.00,VWS V14.00,2013-04-22 07:35:00,
2013-04-22 00:37:00,57.0,12.7,30.00,NNE,22,5.4,5.4,17,0.00,,---,0.00,VWS V14.00,2013-04-22 07:37:00,
2013-04-22 00:38:00,56.8,12.5,30.00,NE,45,4.0,5.4,17,0.00,,---,0.00,VWS V14.00,2013-04-22 07:38:00,
2013-04-22 00:40:00,56.5,12.2,30.00,East,90,2.5,2.5,17,0.00,,---,0.00,VWS V14.00,2013-04-22 07:40:00,
2013-04-22 00:42:00,56.5,12.2,30.00,ENE,68,3.1,3.1,17,0.00,,---,0.00,VWS V14.00,2013-04-22 07:42:00,
2013-04-22 00:43:00,55.9,11.8,30.00,ENE,68,1.3,3.1,17,0.00,,---,0.00,VWS V14.00,2013-04-22 07:43:00,
2013-04-22 00:46:00,55.9,11.8,30.00,ENE,68,4.9,6.0,17,0.00,,---,0.00,VWS V14.00,2013-04-22 07:46:00,
2013-04-22 00:47:00,55.9,11.8,30.00,NE,45,5.6,5.6,17,0.00,,---,0.00,VWS V14.00,2013-04-22 07:47:00,
2013-04-22 00:48:00,56.3,12.1,30.00,East,90,4.9,5.6,17,0.00,,---,0.00,VWS V14.00,2013-04-22 07:48:00,
2013-04-22 00:51:00,56.3,12.1,30.00,NE,45,6.0,6.5,17,0.00,,---,0.00,VWS V14.00,2013-04-22 07:51:00,
2013-04-22 00:52:00,56.3,12.1,30.00,NE,45,5.4,6.5,17,0.00,,---,0.00,VWS V14.00,2013-04-22 07:52:00,
2013-04-22 00:53:00,56.3,15.8,30.00,NE,45,6.5,7.6,20,0.00,,---,0.00,VWS V14.00,2013-04-22 07:53:00,
2013-04-22 00:54:00,56.3,15.8,30.00,ENE,68,5.6,7.6,20,0.00,,---,0.00,VWS V14.00,2013-04-22 07:54:00,
2013-04-22 00:56:00,56.5,15.9,30.00,NE,45,6.3,6.3,20,0.00,,---,0.00,VWS V14.00,2013-04-22 07:56:00,
2013-04-22 00:57:00,56.5,15.9,30.00,NE,45,4.9,6.3,20,0.00,,---,0.00,VWS V14.00,2013-04-22 07:57:00,
2013-04-22 00:58:00,56.5,15.9,30.00,NNE,22,4.9,6.3,20,0.00,,---,0.00,VWS V14.00,2013-04-22 07:58:00,
2013-04-22 00:59:00,56.5,15.9,30.00,NNE,22,4.9,6.3,20,0.00,,---,0.00,VWS V14.00,2013-04-22 07:59:00,
2013-04-22 01:01:00,56.5,15.9,30.00,NNE,22,5.4,10.5,20,0.00,,---,0.00,VWS V14.00,2013-04-22 08:01:00,
2013-04-22 01:03:00,56.5,15.9,30.00,NNE,22,5.8,10.5,20,0.00,,---,0.00,VWS V14.00,2013-04-22 08:03:00,
2013-04-22 01:04:00,56.5,15.9,30.00,NNE,22,4.9,10.5,20,0.00,,---,0.00,VWS V14.00,2013-04-22 08:04:00,
2013-04-22 01:06:00,56.5,15.9,30.00,NNE,22,6.5,6.5,20,0.00,,---,0.00,VWS V14.00,2013-04-22 08:06:00,
2013-04-22 01:08:00,56.3,15.8,30.00,NNE,22,5.4,6.5,20,0.00,,---,0.00,VWS V14.00,2013-04-22 08:08:00,
2013-04-22 01:09:00,56.3,15.8,30.00,NE,45,7.4,7.4,20,0.00,,---,0.00,VWS V14.00,2013-04-22 08:09:00,
2013-04-22 01:11:00,56.3,15.8,30.00,NE,45,4.9,7.4,20,0.00,,---,0.00,VWS V14.00,2013-04-22 08:11:00,
2013-04-22 01:12:00,56.3,15.8,30.00,NE,45,4.9,7.4,20,0.00,,---,0.00,VWS V14.00,2013-04-22 08:12:00,
2013-04-22 01:13:00,56.1,15.6,30.00,NNE,22,6.0,7.4,20,0.00,,---,0.00,VWS V14.00,2013-04-22 08:13:00,
2013-04-22 01:14:00,56.1,15.6,30.00,NNE,22,7.8,7.8,20,0.00,,---,0.00,VWS V14.00,2013-04-22 08:14:00,
2013-04-22 01:17:00,56.1,15.6,30.00,NNE,22,6.5,7.6,20,0.00,,---,0.00,VWS V14.00,2013-04-22 08:17:00,
2013-04-22 01:18:00,56.1,15.6,30.00,NNE,22,8.7,8.7,20,0.00,,---,0.00,VWS V14.00,2013-04-22 08:18:00,
2013-04-22 01:19:00,56.1,15.6,30.00,NE,45,8.5,8.7,20,0.00,,---,0.00,VWS V14.00,2013-04-22 08:19:00,
2013-04-22 01:22:00,56.1,15.6,30.00,NE,45,6.5,6.5,20,0.00,,---,0.00,VWS V14.00,2013-04-22 08:22:00,
2013-04-22 01:23:00,56.1,15.6,30.00,NE,45,7.6,7.6,20,0.00,,---,0.00,VWS V14.00,2013-04-22 08:23:00,
2013-04-22 01:24:00,55.9,15.5,30.00,NE,45,3.1,7.6,20,0.00,,---,0.00,VWS V14.00,2013-04-22 08:24:00,
2013-04-22 01:27:00,55.8,15.3,30.00,NNE,22,4.3,4.5,20,0.00,,---,0.00,VWS V14.00,2013-04-22 08:27:00,
2013-04-22 01:28:00,55.6,15.2,29.97,NE,45,4.9,5.8,20,0.00,,---,0.00,VWS V14.00,2013-04-22 08:28:00,
2013-04-22 01:29:00,55.6,15.2,29.97,NE,45,4.9,5.8,20,0.00,,---,0.00,VWS V14.00,2013-04-22 08:29:00,
2013-04-22 01:32:00,55.2,14.9,29.97,NE,45,3.8,5.6,20,0.00,,---,0.00,VWS V14.00,2013-04-22 08:32:00,
2013-04-22 01:33:00,55.0,14.7,29.97,ENE,68,3.4,5.6,20,0.00,,---,0.00,VWS V14.00,2013-04-22 08:33:00,
2013-04-22 01:34:00,55.0,14.7,29.97,ENE,68,3.4,5.6,20,0.00,,---,0.00,VWS V14.00,2013-04-22 08:34:00,
2013-04-22 01:35:00,55.0,14.7,29.97,ENE,68,3.4,5.6,20,0.00,,---,0.00,VWS V14.00,2013-04-22 08:35:00,
2013-04-22 01:37:00,54.7,14.4,29.97,NE,45,3.8,3.8,20,0.00,,---,0.00,VWS V14.00,2013-04-22 08:37:00,
2013-04-22 01:38:00,54.5,17.5,29.97,ENE,68,3.4,3.8,23,0.00,,---,0.00,VWS V14.00,2013-04-22 08:38:00,
2013-04-22 01:39:00,54.5,17.5,29.97,ENE,68,2.7,3.8,23,0.00,,---,0.00,VWS V14.00,2013-04-22 08:39:00,
2013-04-22 01:40:00,54.3,17.3,29.97,NE,45,3.4,4.3,23,0.00,,---,0.00,VWS V14.00,2013-04-22 08:40:00,
2013-04-22 01:42:00,54.3,17.3,29.97,NE,45,2.9,3.4,23,0.00,,---,0.00,VWS V14.00,2013-04-22 08:42:00,
2013-04-22 01:43:00,54.1,17.2,29.97,NE,45,3.4,3.4,23,0.00,,---,0.00,VWS V14.00,2013-04-22 08:43:00,
2013-04-22 01:44:00,54.1,17.2,29.97,NNE,22,4.3,4.3,23,0.00,,---,0.00,VWS V14.00,2013-04-22 08:44:00,
2013-04-22 01:45:00,54.3,17.3,29.97,NE,45,5.6,6.0,23,0.00,,---,0.00,VWS V14.00,2013-04-22 08:45:00,
2013-04-22 01:47:00,54.3,17.3,29.97,NNE,22,4.3,6.0,23,0.00,,---,0.00,VWS V14.00,2013-04-22 08:47:00,
2013-04-22 01:48:00,54.5,19.4,29.97,NNE,22,7.2,7.2,25,0.00,,---,0.00,VWS V14.00,2013-04-22 08:48:00,
2013-04-22 01:49:00,54.5,19.4,29.97,NNE,22,6.0,7.2,25,0.00,,---,0.00,VWS V14.00,2013-04-22 08:49:00,
2013-04-22 01:50:00,54.5,19.4,29.97,NNE,22,4.0,7.2,25,0.00,,---,0.00,VWS V14.00,2013-04-22 08:50:00,
2013-04-22 01:52:00,54.7,19.6,29.97,NNE,22,6.5,6.5,25,0.00,,---,0.00,VWS V14.00,2013-04-22 08:52:00,
2013-04-22 01:53:00,54.7,19.6,29.97,NNE,22,6.3,8.1,25,0.00,,---,0.00,VWS V14.00,2013-04-22 08:53:00,
2013-04-22 01:54:00,54.7,19.6,29.97,NNE,22,10.3,10.3,25,0.00,,---,0.00,VWS V14.00,2013-04-22 08:54:00,
2013-04-22 01:55:00,54.9,19.7,29.97,NNE,22,9.2,10.3,25,0.00,,---,0.00,VWS V14.00,2013-04-22 08:55:00,
2013-04-22 01:57:00,55.0,19.9,30.00,North,0,6.7,10.3,25,0.00,,---,0.00,VWS V14.00,2013-04-22 08:57:00,
2013-04-22 01:59:00,55.0,19.9,30.00,NNE,22,5.4,10.3,25,0.00,,---,0.00,VWS V14.00,2013-04-22 08:59:00,
2013-04-22 02:00:00,55.0,19.9,30.00,NNE,22,3.8,10.3,25,0.00,,---,0.00,VWS V14.00,2013-04-22 09:00:00,
2013-04-22 02:02:00,54.9,19.7,30.00,NE,45,4.9,7.4,25,0.00,,---,0.00,VWS V14.00,2013-04-22 09:02:00,
2013-04-22 02:04:00,54.7,19.6,30.00,NE,45,5.6,7.4,25,0.00,,---,0.00,VWS V14.00,2013-04-22 09:04:00,
2013-04-22 02:05:00,54.7,19.6,30.00,NE,45,5.6,7.4,25,0.00,,---,0.00,VWS V14.00,2013-04-22 09:05:00,
2013-04-22 02:08:00,54.5,20.3,30.00,NNE,22,6.5,7.4,26,0.00,,---,0.00,VWS V14.00,2013-04-22 09:08:00,
2013-04-22 02:09:00,54.5,20.3,30.00,NE,45,4.0,7.4,26,0.00,,---,0.00,VWS V14.00,2013-04-22 09:09:00,
2013-04-22 02:10:00,54.3,20.2,30.00,NE,45,2.2,7.4,26,0.00,,---,0.00,VWS V14.00,2013-04-22 09:10:00,
2013-04-22 02:13:00,54.1,20.0,30.00,NNE,22,1.1,3.1,26,0.00,,---,0.00,VWS V14.00,2013-04-22 09:13:00,
2013-04-22 02:14:00,53.6,18.6,30.00,NE,45,1.3,3.1,25,0.00,,---,0.00,VWS V14.00,2013-04-22 09:14:00,
2013-04-22 02:15:00,53.6,18.6,30.00,NE,45,0.9,3.1,25,0.00,,---,0.00,VWS V14.00,2013-04-22 09:15:00,
2013-04-22 02:18:00,53.1,19.1,30.00,ENE,68,0.0,1.6,26,0.00,,---,0.00,VWS V14.00,2013-04-22 09:18:00,
2013-04-22 02:19:00,52.9,19.0,30.00,NNE,22,1.1,1.6,26,0.00,,---,0.00,VWS V14.00,2013-04-22 09:19:00,
2013-04-22 02:20:00,52.9,19.0,30.00,ENE,68,2.5,5.4,26,0.00,,---,0.00,VWS V14.00,2013-04-22 09:20:00,
2013-04-22 02:23:00,52.7,18.8,30.00,NE,45,1.3,2.9,26,0.00,,---,0.00,VWS V14.00,2013-04-22 09:23:00,
2013-04-22 02:24:00,52.7,18.8,30.00,NE,45,1.3,2.9,26,0.00,,---,0.00,VWS V14.00,2013-04-22 09:24:00,
2013-04-22 02:26:00,52.7,19.7,30.00,NNE,22,2.9,4.3,27,0.00,,---,0.00,VWS V14.00,2013-04-22 09:26:00,
2013-04-22 02:28:00,52.7,19.7,30.00,NNE,22,2.9,4.3,27,0.00,,---,0.00,VWS V14.00,2013-04-22 09:28:00,
2013-04-22 02:29:00,52.7,19.7,30.00,NNE,22,3.8,4.3,27,0.00,,---,0.00,VWS V14.00,2013-04-22 09:29:00,
2013-04-22 02:30:00,52.7,19.7,30.00,NNE,22,3.8,4.3,27,0.00,,---,0.00,VWS V14.00,2013-04-22 09:30:00,
2013-04-22 02:31:00,52.7,19.7,30.00,NE,45,4.0,5.4,27,0.00,,---,0.00,VWS V14.00,2013-04-22 09:31:00,
2013-04-22 02:33:00,52.7,19.7,30.00,NNE,22,3.8,5.4,27,0.00,,---,0.00,VWS V14.00,2013-04-22 09:33:00,
2013-04-22 02:34:00,52.7,19.7,30.00,NNE,22,4.0,5.4,27,0.00,,---,0.00,VWS V14.00,2013-04-22 09:34:00,
2013-04-22 02:35:00,52.7,19.7,30.00,NNE,22,7.8,7.8,27,0.00,,---,0.00,VWS V14.00,2013-04-22 09:35:00,
2013-04-22 02:36:00,52.7,19.7,30.00,NNE,22,10.5,10.5,27,0.00,,---,0.00,VWS V14.00,2013-04-22 09:36:00,
2013-04-22 02:38:00,53.2,21.0,30.00,NNE,22,6.0,10.5,28,0.00,,---,0.00,VWS V14.00,2013-04-22 09:38:00,
2013-04-22 02:39:00,53.2,21.0,30.00,NNE,22,6.0,10.5,28,0.00,,---,0.00,VWS V14.00,2013-04-22 09:39:00,
2013-04-22 02:40:00,53.4,21.1,30.00,NNE,22,6.3,10.5,28,0.00,,---,0.00,VWS V14.00,2013-04-22 09:40:00,
2013-04-22 02:41:00,53.4,21.1,30.00,NNE,22,6.3,7.8,28,0.00,,---,0.00,VWS V14.00,2013-04-22 09:41:00,
2013-04-22 02:43:00,53.4,21.1,30.00,NNE,22,5.8,7.8,28,0.00,,---,0.00,VWS V14.00,2013-04-22 09:43:00,
2013-04-22 02:44:00,53.4,21.1,30.00,NNE,22,7.8,7.8,28,0.00,,---,0.00,VWS V14.00,2013-04-22 09:44:00,
2013-04-22 02:46:00,53.6,21.3,30.00,NNE,22,7.4,7.4,28,0.00,,---,0.00,VWS V14.00,2013-04-22 09:46:00,
2013-04-22 02:48:00,53.6,21.3,30.00,NNE,22,7.8,9.6,28,0.00,,---,0.00,VWS V14.00,2013-04-22 09:48:00,
2013-04-22 02:49:00,53.6,21.3,30.00,NNE,22,8.5,9.6,28,0.00,,---,0.00,VWS V14.00,2013-04-22 09:49:00,
2013-04-22 02:51:00,53.6,21.3,30.00,North,0,9.8,9.8,28,0.00,,---,0.00,VWS V14.00,2013-04-22 09:51:00,
2013-04-22 02:53:00,53.6,21.3,30.00,NNE,22,7.8,9.8,28,0.00,,---,0.00,VWS V14.00,2013-04-22 09:53:00,
2013-04-22 02:55:00,53.8,21.5,30.00,North,0,5.4,9.8,28,0.00,,---,0.00,VWS V14.00,2013-04-22 09:55:00,
2013-04-22 02:56:00,53.8,21.5,30.00,NNE,22,5.4,5.6,28,0.00,,---,0.00,VWS V14.00,2013-04-22 09:56:00,
2013-04-22 02:57:00,53.8,21.5,30.00,NNE,22,5.4,5.6,28,0.00,,---,0.00,VWS V14.00,2013-04-22 09:57:00,
2013-04-22 02:59:00,53.6,21.3,30.00,NNE,22,7.8,8.1,28,0.00,,---,0.00,VWS V14.00,2013-04-22 09:59:00,
2013-04-22 03:00:00,53.6,21.3,30.00,NNE,22,6.5,8.1,28,0.00,,---,0.00,VWS V14.00,2013-04-22 10:00:00,
2013-04-22 03:01:00,53.6,21.3,30.00,NNE,22,6.5,6.5,28,0.00,,---,0.00,VWS V14.00,2013-04-22 10:01:00,
2013-04-22 03:02:00,53.6,21.3,30.00,North,0,5.8,6.5,28,0.00,,---,0.00,VWS V14.00,2013-04-22 10:02:00,
2013-04-22 03:04:00,53.6,21.3,30.00,NNE,22,6.0,6.5,28,0.00,,---,0.00,VWS V14.00,2013-04-22 10:04:00,
2013-04-22 03:05:00,53.6,21.3,30.00,North,0,5.8,6.5,28,0.00,,---,0.00,VWS V14.00,2013-04-22 10:05:00,
2013-04-22 03:07:00,53.4,21.1,30.00,NNE,22,5.8,7.4,28,0.00,,---,0.00,VWS V14.00,2013-04-22 10:07:00,
2013-04-22 03:09:00,53.2,21.0,30.00,NNE,22,5.4,7.4,28,0.00,,---,0.00,VWS V14.00,2013-04-22 10:09:00,
2013-04-22 03:10:00,53.2,21.0,30.00,NNE,22,5.4,7.4,28,0.00,,---,0.00,VWS V14.00,2013-04-22 10:10:00,
2013-04-22 03:12:00,53.2,21.0,30.00,NNE,22,4.3,7.4,28,0.00,,---,0.00,VWS V14.00,2013-04-22 10:12:00,
2013-04-22 03:13:00,53.1,20.8,30.00,NNE,22,4.9,7.4,28,0.00,,---,0.00,VWS V14.00,2013-04-22 10:13:00,
2013-04-22 03:14:00,53.1,20.8,30.00,NNE,22,5.8,7.4,28,0.00,,---,0.00,VWS V14.00,2013-04-22 10:14:00,
2013-04-22 03:15:00,53.1,20.8,30.00,NNE,22,5.8,7.4,28,0.00,,---,0.00,VWS V14.00,2013-04-22 10:15:00,
2013-04-22 03:17:00,52.9,20.7,30.00,NE,45,4.9,6.0,28,0.00,,---,0.00,VWS V14.00,2013-04-22 10:17:00,
2013-04-22 03:18:00,52.9,20.7,30.00,NNE,22,5.4,6.0,28,0.00,,---,0.00,VWS V14.00,2013-04-22 10:18:00,
2013-04-22 03:19:00,52.7,21.4,30.00,NNE,22,4.0,6.3,29,0.00,,---,0.00,VWS V14.00,2013-04-22 10:19:00,
2013-04-22 03:20:00,52.7,21.4,30.00,NNE,22,6.0,6.3,29,0.00,,---,0.00,VWS V14.00,2013-04-22 10:20:00,
2013-04-22 03:22:00,52.7,20.5,30.00,NNE,22,6.5,7.8,28,0.00,,---,0.00,VWS V14.00,2013-04-22 10:22:00,
2013-04-22 03:23:00,52.7,20.5,30.00,NNE,22,6.5,7.8,28,0.00,,---,0.00,VWS V14.00,2013-04-22 10:23:00,
2013-04-22 03:24:00,52.7,20.5,30.00,North,0,7.6,7.8,28,0.00,,---,0.00,VWS V14.00,2013-04-22 10:24:00,
2013-04-22 03:25:00,52.9,20.7,30.00,North,0,6.3,7.8,28,0.00,,---,0.00,VWS V14.00,2013-04-22 10:25:00,
2013-04-22 03:28:00,52.9,20.7,30.00,North,0,6.0,6.0,28,0.00,,---,0.00,VWS V14.00,2013-04-22 10:28:00,
2013-04-22 03:30:00,52.9,20.7,30.00,North,0,6.3,6.5,28,0.00,,---,0.00,VWS V14.00,2013-04-22 10:30:00,
2013-04-22 03:33:00,52.9,19.8,30.00,NNE,22,6.5,6.5,27,0.00,,---,0.00,VWS V14.00,2013-04-22 10:33:00,
2013-04-22 03:34:00,52.9,19.8,30.00,NNE,22,5.8,6.5,27,0.00,,---,0.00,VWS V14.00,2013-04-22 10:34:00,
2013-04-22 03:35:00,52.9,19.8,30.00,NNE,22,4.9,6.5,27,0.00,,---,0.00,VWS V14.00,2013-04-22 10:35:00,
2013-04-22 03:38:00,52.9,19.8,30.00,NNE,22,5.4,7.4,27,0.00,,---,0.00,VWS V14.00,2013-04-22 10:38:00,
2013-04-22 03:39:00,52.9,19.8,30.00,NNE,22,4.3,7.4,27,0.00,,---,0.00,VWS V14.00,2013-04-22 10:39:00,
2013-04-22 03:40:00,52.9,19.8,30.00,NNE,22,4.5,7.4,27,0.00,,---,0.00,VWS V14.00,2013-04-22 10:40:00,
2013-04-22 03:43:00,52.7,19.7,30.00,North,0,2.9,4.9,27,0.00,,---,0.00,VWS V14.00,2013-04-22 10:43:00,
2013-04-22 03:44:00,52.7,19.7,30.00,North,0,2.9,4.9,27,0.00,,---,0.00,VWS V14.00,2013-04-22 10:44:00,
2013-04-22 03:45:00,52.7,19.7,30.00,North,0,2.9,4.9,27,0.00,,---,0.00,VWS V14.00,2013-04-22 10:45:00,
2013-04-22 03:48:00,52.7,19.7,30.00,North,0,2.7,3.1,27,0.00,,---,0.00,VWS V14.00,2013-04-22 10:48:00,
2013-04-22 03:49:00,51.3,18.4,30.00,NNW,338,2.5,3.1,27,0.00,,---,0.00,VWS V14.00,2013-04-22 10:49:00,
2013-04-22 03:50:00,51.3,18.4,30.00,NNW,338,2.2,3.1,27,0.00,,---,0.00,VWS V14.00,2013-04-22 10:50:00,
2013-04-22 03:51:00,51.1,18.3,30.00,NW,315,1.6,2.2,27,0.00,,---,0.00,VWS V14.00,2013-04-22 10:51:00,
2013-04-22 03:53:00,51.1,18.3,30.00,WSW,248,2.2,2.5,27,0.00,,---,0.00,VWS V14.00,2013-04-22 10:53:00,
2013-04-22 03:54:00,51.1,18.3,30.00,West,270,1.1,2.5,27,0.00,,---,0.00,VWS V14.00,2013-04-22 10:54:00,
2013-04-22 03:55:00,50.2,17.5,30.00,West,270,0.0,2.5,27,0.00,,---,0.00,VWS V14.00,2013-04-22 10:55:00,
2013-04-22 03:56:00,50.2,17.5,30.00,West,270,0.0,0.0,27,0.00,,---,0.00,VWS V14.00,2013-04-22 10:56:00,
2013-04-22 03:58:00,49.3,16.7,30.00,North,0,0.0,0.0,27,0.00,,---,0.00,VWS V14.00,2013-04-22 10:58:00,
2013-04-22 03:59:00,48.9,16.4,30.00,North,0,1.3,1.3,27,0.00,,---,0.00,VWS V14.00,2013-04-22 10:59:00,
2013-04-22 04:00:00,48.9,16.4,30.00,NW,315,3.8,3.8,27,0.00,,---,0.00,VWS V14.00,2013-04-22 11:00:00,
2013-04-22 04:02:00,49.3,17.6,30.00,WSW,248,2.5,3.8,28,0.00,,---,0.00,VWS V14.00,2013-04-22 11:02:00,
2013-04-22 04:03:00,49.3,17.6,30.00,WNW,292,2.7,3.8,28,0.00,,---,0.00,VWS V14.00,2013-04-22 11:03:00,
2013-04-22 04:04:00,49.3,17.6,30.00,West,270,2.9,3.8,28,0.00,,---,0.00,VWS V14.00,2013-04-22 11:04:00,
2013-04-22 04:05:00,49.3,17.6,30.00,West,270,3.8,5.6,28,0.00,,---,0.00,VWS V14.00,2013-04-22 11:05:00,
2013-04-22 04:08:00,49.1,17.4,30.00,NW,315,3.1,5.6,28,0.00,,---,0.00,VWS V14.00,2013-04-22 11:08:00,
2013-04-22 04:09:00,49.1,17.4,30.00,WNW,292,3.1,5.6,28,0.00,,---,0.00,VWS V14.00,2013-04-22 11:09:00,
2013-04-22 04:10:00,48.6,17.0,30.00,WNW,292,2.5,2.5,28,0.00,,---,0.00,VWS V14.00,2013-04-22 11:10:00,
2013-04-22 04:13:00,48.0,16.5,30.00,WNW,292,1.1,2.5,28,0.00,,---,0.00,VWS V14.00,2013-04-22 11:13:00,
2013-04-22 04:14:00,47.8,16.3,30.00,NNW,338,2.7,2.7,28,0.00,,---,0.00,VWS V14.00,2013-04-22 11:14:00,
2013-04-22 04:15:00,47.7,16.2,30.00,NNW,338,1.1,2.7,28,0.00,,---,0.00,VWS V14.00,2013-04-22 11:15:00,
2013-04-22 04:18:00,47.1,15.7,30.00,West,270,0.0,2.7,28,0.00,,---,0.00,VWS V14.00,2013-04-22 11:18:00,
2013-04-22 04:19:00,47.1,15.7,30.00,West,270,0.0,2.7,28,0.00,,---,0.00,VWS V14.00,2013-04-22 11:19:00,
2013-04-22 04:20:00,47.1,15.7,30.00,West,270,0.0,2.7,28,0.00,,---,0.00,VWS V14.00,2013-04-22 11:20:00,
2013-04-22 04:21:00,46.8,15.4,30.00,WNW,292,0.0,0.0,28,0.00,,---,0.00,VWS V14.00,2013-04-22 11:21:00,
2013-04-22 04:23:00,46.4,15.1,30.00,WNW,292,0.0,0.0,28,0.00,,---,0.00,VWS V14.00,2013-04-22 11:23:00,
2013-04-22 04:24:00,46.4,15.1,30.00,WNW,292,0.0,0.0,28,0.00,,---,0.00,VWS V14.00,2013-04-22 11:24:00,
2013-04-22 04:25:00,46.0,15.6,30.00,WNW,292,0.0,0.0,29,0.00,,---,0.00,VWS V14.00,2013-04-22 11:25:00,
2013-04-22 04:26:00,46.0,15.6,30.00,WNW,292,0.0,0.0,29,0.00,,---,0.00,VWS V14.00,2013-04-22 11:26:00,
2013-04-22 04:28:00,46.0,15.6,30.00,WNW,292,1.1,1.1,29,0.00,,---,0.00,VWS V14.00,2013-04-22 11:28:00,
2013-04-22 04:29:00,45.9,15.4,30.00,WNW,292,1.6,1.6,29,0.00,,---,0.00,VWS V14.00,2013-04-22 11:29:00,
2013-04-22 04:30:00,45.9,15.4,30.00,WNW,292,2.7,2.9,29,0.00,,---,0.00,VWS V14.00,2013-04-22 11:30:00,
2013-04-22 04:31:00,45.9,15.4,30.00,WNW,292,3.1,3.1,29,0.00,,---,0.00,VWS V14.00,2013-04-22 11:31:00,
2013-04-22 04:33:00,45.9,16.2,30.00,WNW,292,1.6,3.1,30,0.00,,---,0.00,VWS V14.00,2013-04-22 11:33:00,
2013-04-22 04:34:00,45.5,15.1,30.00,WNW,292,1.6,3.1,29,0.00,,---,0.00,VWS V14.00,2013-04-22 11:34:00,
2013-04-22 04:35:00,45.5,15.1,30.00,WNW,292,1.6,3.1,29,0.00,,---,0.00,VWS V14.00,2013-04-22 11:35:00,
2013-04-22 04:36:00,45.3,14.9,30.00,WNW,292,2.0,2.2,29,0.00,,---,0.00,VWS V14.00,2013-04-22 11:36:00,
2013-04-22 04:38:00,45.3,15.7,30.00,NW,315,2.0,2.9,30,0.00,,---,0.00,VWS V14.00,2013-04-22 11:38:00,
2013-04-22 04:39:00,45.3,15.7,30.00,NW,315,2.0,2.9,30,0.00,,---,0.00,VWS V14.00,2013-04-22 11:39:00,
2013-04-22 04:40:00,45.3,15.7,30.00,NW,315,2.0,2.9,30,0.00,,---,0.00,VWS V14.00,2013-04-22 11:40:00,
2013-04-22 04:41:00,45.3,15.7,30.00,NW,315,2.0,2.9,30,0.00,,---,0.00,VWS V14.00,2013-04-22 11:41:00,
2013-04-22 04:43:00,45.3,15.7,30.00,NNW,338,2.2,2.2,30,0.00,,---,0.00,VWS V14.00,2013-04-22 11:43:00,
2013-04-22 04:44:00,45.3,15.7,30.00,NNW,338,2.2,2.2,30,0.00,,---,0.00,VWS V14.00,2013-04-22 11:44:00,
2013-04-22 04:45:00,45.3,15.7,30.00,NNW,338,2.2,2.2,30,0.00,,---,0.00,VWS V14.00,2013-04-22 11:45:00,
2013-04-22 04:46:00,45.3,15.7,30.00,WNW,292,2.5,2.7,30,0.00,,---,0.00,VWS V14.00,2013-04-22 11:46:00,
2013-04-22 04:48:00,46.2,17.3,30.00,WNW,292,0.0,2.7,31,0.00,,---,0.00,VWS V14.00,2013-04-22 11:48:00,
2013-04-22 04:49:00,46.2,17.3,30.00,WNW,292,0.0,2.7,31,0.00,,---,0.00,VWS V14.00,2013-04-22 11:49:00,
2013-04-22 04:50:00,46.2,17.3,30.00,WNW,292,0.0,2.7,31,0.00,,---,0.00,VWS V14.00,2013-04-22 11:50:00,
2013-04-22 04:51:00,46.0,17.1,30.00,WNW,292,1.6,2.0,31,0.00,,---,0.00,VWS V14.00,2013-04-22 11:51:00,
2013-04-22 04:54:00,45.9,17.7,30.00,WNW,292,2.2,3.6,32,0.00,,---,0.00,VWS V14.00,2013-04-22 11:54:00,
2013-04-22 04:55:00,45.9,17.7,30.00,WNW,292,2.2,3.6,32,0.00,,---,0.00,VWS V14.00,2013-04-22 11:55:00,
2013-04-22 04:56:00,45.9,17.0,30.00,WNW,292,1.3,1.6,31,0.00,,---,0.00,VWS V14.00,2013-04-22 11:56:00,
2013-04-22 04:59:00,45.9,17.7,30.03,WNW,292,2.0,2.5,32,0.00,,---,0.00,VWS V14.00,2013-04-22 11:59:00,
2013-04-22 05:00:00,45.9,17.7,30.03,WNW,292,2.0,2.5,32,0.00,,---,0.00,VWS V14.00,2013-04-22 12:00:00,
2013-04-22 05:01:00,45.9,17.0,30.03,WNW,292,0.0,2.0,31,0.00,,---,0.00,VWS V14.00,2013-04-22 12:01:00,
2013-04-22 05:04:00,45.7,17.5,30.03,WNW,292,1.3,2.2,32,0.00,,---,0.00,VWS V14.00,2013-04-22 12:04:00,
2013-04-22 05:05:00,45.7,17.5,30.03,WNW,292,0.0,2.2,32,0.00,,---,0.00,VWS V14.00,2013-04-22 12:05:00,
2013-04-22 05:06:00,45.5,16.6,30.03,WNW,292,0.0,0.0,31,0.00,,---,0.00,VWS V14.00,2013-04-22 12:06:00,
2013-04-22 05:09:00,45.5,17.4,30.03,WNW,292,1.3,2.9,32,0.00,,---,0.00,VWS V14.00,2013-04-22 12:09:00,
2013-04-22 05:10:00,45.5,17.4,30.03,WNW,292,3.4,3.4,32,0.00,,---,0.00,VWS V14.00,2013-04-22 12:10:00,
2013-04-22 05:11:00,45.5,17.4,30.03,WNW,292,3.4,3.4,32,0.00,,---,0.00,VWS V14.00,2013-04-22 12:11:00,
2013-04-22 05:15:00,45.5,18.1,30.03,WNW,292,3.1,4.0,33,0.00,,---,0.00,VWS V14.00,2013-04-22 12:15:00,
2013-04-22 05:16:00,45.5,18.1,30.03,WNW,292,2.7,2.7,33,0.00,,---,0.00,VWS V14.00,2013-04-22 12:16:00,
2013-04-22 05:17:00,45.5,17.4,30.03,WNW,292,3.1,3.1,32,0.00,,---,0.00,VWS V14.00,2013-04-22 12:17:00,
2013-04-22 05:20:00,45.3,17.2,30.03,WNW,292,2.0,3.1,32,0.00,,---,0.00,VWS V14.00,2013-04-22 12:20:00,
2013-04-22 05:21:00,45.3,17.2,30.03,WNW,292,2.5,2.5,32,0.00,,---,0.00,VWS V14.00,2013-04-22 12:21:00,
2013-04-22 05:23:00,45.3,17.9,30.03,WNW,292,1.3,2.5,33,0.00,,---,0.00,VWS V14.00,2013-04-22 12:23:00,
2013-04-22 05:25:00,45.3,17.9,30.03,North,0,3.4,3.4,33,0.00,,---,0.00,VWS V14.00,2013-04-22 12:25:00,
2013-04-22 05:26:00,45.3,17.9,30.03,North,0,1.6,3.4,33,0.00,,---,0.00,VWS V14.00,2013-04-22 12:26:00,
2013-04-22 05:28:00,45.5,18.8,30.03,NNE,22,3.8,3.8,34,0.00,,---,0.00,VWS V14.00,2013-04-22 12:28:00,
2013-04-22 05:30:00,46.0,21.2,29.97,North,0,3.6,5.6,37,0.00,,---,0.00,VWS V14.00,2013-04-22 12:30:00,
2013-04-22 05:31:00,46.0,21.2,29.97,North,0,3.6,5.6,37,0.00,,---,0.00,VWS V14.00,2013-04-22 12:31:00,
2013-04-22 05:33:00,46.8,21.9,29.97,NNE,22,4.9,6.3,37,0.00,,---,0.00,VWS V14.00,2013-04-22 12:33:00,
2013-04-22 05:35:00,47.1,22.2,29.97,WNW,292,2.9,6.3,37,0.00,,---,0.00,VWS V14.00,2013-04-22 12:35:00,
2013-04-22 05:36:00,47.1,22.2,29.97,WNW,292,2.9,6.3,37,0.00,,---,0.00,VWS V14.00,2013-04-22 12:36:00,
2013-04-22 05:38:00,46.9,21.4,29.97,WNW,292,2.7,6.3,36,0.00,,---,0.00,VWS V14.00,2013-04-22 12:38:00,
2013-04-22 05:41:00,46.8,21.2,29.97,WNW,292,3.8,3.8,36,0.00,,---,0.00,VWS V14.00,2013-04-22 12:41:00,
2013-04-22 05:42:00,46.8,21.2,29.97,WNW,292,4.0,4.0,36,0.00,,---,0.00,VWS V14.00,2013-04-22 12:42:00,
2013-04-22 05:43:00,46.8,21.2,30.00,NW,315,3.8,4.0,36,0.00,,---,0.00,VWS V14.00,2013-04-22 12:43:00,
2013-04-22 05:47:00,46.9,22.0,30.00,WNW,292,3.8,3.8,37,0.00,,---,0.00,VWS V14.00,2013-04-22 12:47:00,
2013-04-22 05:48:00,47.3,22.4,30.00,NW,315,5.6,5.6,37,0.00,,---,0.00,VWS V14.00,2013-04-22 12:48:00,
2013-04-22 05:52:00,47.3,21.7,30.00,NW,315,2.7,3.1,36,0.00,,---,0.00,VWS V14.00,2013-04-22 12:52:00,
2013-04-22 06:38:00,46.9,20.0,30.00,NW,315,2.0,3.6,34,0.00,,---,0.00,VWS V14.00,2013-04-22 13:38:00,
2013-04-22 06:43:00,44.1,16.8,30.03,SSW,202,0.0,0.0,33,0.00,,---,0.00,VWS V14.00,2013-04-22 13:43:00,
2013-04-22 06:48:00,44.6,18.0,30.03,SSW,202,0.0,0.0,34,0.00,,---,0.00,VWS V14.00,2013-04-22 13:48:00,
2013-04-22 06:53:00,45.1,17.8,30.03,South,180,0.0,0.0,33,0.00,,---,0.00,VWS V14.00,2013-04-22 13:53:00,
2013-04-22 06:58:00,45.9,18.4,30.03,SE,135,2.5,2.9,33,0.00,,---,0.00,VWS V14.00,2013-04-22 13:58:00,
2013-04-22 07:03:00,46.9,18.6,30.03,SE,135,0.0,0.9,32,0.00,,---,0.00,VWS V14.00,2013-04-22 14:03:00,
2013-04-22 07:04:00,46.9,18.6,30.03,SE,135,0.0,0.9,32,0.00,,---,0.00,VWS V14.00,2013-04-22 14:04:00,
2013-04-22 07:08:00,48.2,19.7,30.03,SE,135,0.0,2.0,32,0.00,,---,0.00,VWS V14.00,2013-04-22 14:08:00,
2013-04-22 07:09:00,48.2,19.7,30.03,SE,135,0.0,2.0,32,0.00,,---,0.00,VWS V14.00,2013-04-22 14:09:00,
2013-04-22 07:13:00,49.5,20.1,30.03,SE,135,0.0,0.0,31,0.00,,---,0.00,VWS V14.00,2013-04-22 14:13:00,
2013-04-22 07:14:00,49.8,20.4,30.03,SE,135,0.0,0.0,31,0.00,,---,0.00,VWS V14.00,2013-04-22 14:14:00,
2013-04-22 07:19:00,51.1,20.8,30.03,SE,135,0.0,0.0,30,0.00,,---,0.00,VWS V14.00,2013-04-22 14:19:00,
2013-04-22 07:24:00,52.3,21.0,30.03,SE,135,0.0,0.0,29,0.00,,---,0.00,VWS V14.00,2013-04-22 14:24:00,
2013-04-22 07:25:00,52.5,21.2,30.03,SE,135,0.0,0.0,29,0.00,,---,0.00,VWS V14.00,2013-04-22 14:25:00,
2013-04-22 07:29:00,53.8,21.5,30.03,SE,135,0.0,0.0,28,0.00,,---,0.00,VWS V14.00,2013-04-22 14:29:00,
2013-04-22 07:30:00,54.0,21.6,30.03,SE,135,0.0,0.0,28,0.00,,---,0.00,VWS V14.00,2013-04-22 14:30:00,
2013-04-22 07:34:00,54.5,22.1,30.03,West,270,0.9,2.5,28,0.00,,---,0.00,VWS V14.00,2013-04-22 14:34:00,
2013-04-22 07:35:00,54.5,22.1,30.03,West,270,0.0,2.5,28,0.00,,---,0.00,VWS V14.00,2013-04-22 14:35:00,
2013-04-22 07:39:00,56.1,22.6,30.03,West,270,0.0,0.0,27,0.00,,---,0.00,VWS V14.00,2013-04-22 14:39:00,
2013-04-22 07:40:00,56.5,22.9,30.03,West,270,0.0,0.0,27,0.00,,---,0.00,VWS V14.00,2013-04-22 14:40:00,
2013-04-22 07:41:00,56.7,23.1,30.03,West,270,0.0,0.0,27,0.00,,---,0.00,VWS V14.00,2013-04-22 14:41:00,
2013-04-22 07:44:00,57.6,23.0,30.03,West,270,0.0,0.0,26,0.00,,---,0.00,VWS V14.00,2013-04-22 14:44:00,
2013-04-22 07:45:00,57.6,23.0,30.03,WNW,292,0.0,0.0,26,0.00,,---,0.00,VWS V14.00,2013-04-22 14:45:00,
2013-04-22 07:46:00,57.6,23.0,30.03,NNE,22,2.9,3.1,26,0.00,,---,0.00,VWS V14.00,2013-04-22 14:46:00,
2013-04-22 07:49:00,57.6,22.0,30.03,North,0,3.8,4.3,25,0.00,,---,0.00,VWS V14.00,2013-04-22 14:49:00,
2013-04-22 07:50:00,57.6,22.0,30.03,NNE,22,6.3,7.4,25,0.00,,---,0.00,VWS V14.00,2013-04-22 14:50:00,
2013-04-22 07:51:00,57.6,22.0,30.03,NNE,22,4.9,4.9,25,0.00,,---,0.00,VWS V14.00,2013-04-22 14:51:00,
2013-04-22 07:54:00,58.1,22.5,30.03,NNW,338,7.8,7.8,25,0.00,,---,0.00,VWS V14.00,2013-04-22 14:54:00,
2013-04-22 07:55:00,58.1,22.5,30.03,NNW,338,7.8,7.8,25,0.00,,---,0.00,VWS V14.00,2013-04-22 14:55:00,
2013-04-22 07:56:00,58.1,22.5,30.03,North,0,7.6,7.8,25,0.00,,---,0.00,VWS V14.00,2013-04-22 14:56:00,
2013-04-22 07:59:00,58.5,22.8,30.06,NNE,22,7.4,8.5,25,0.00,,---,0.00,VWS V14.00,2013-04-22 14:59:00,
2013-04-22 08:00:00,58.5,22.8,30.06,North,0,6.3,8.5,25,0.00,,---,0.00,VWS V14.00,2013-04-22 15:00:00,
2013-04-22 08:01:00,58.6,22.9,30.06,NNW,338,8.5,8.5,25,0.00,,---,0.00,VWS V14.00,2013-04-22 15:01:00,
2013-04-22 08:04:00,58.6,22.9,30.06,North,0,9.0,10.3,25,0.00,,---,0.00,VWS V14.00,2013-04-22 15:04:00,
2013-04-22 08:05:00,58.8,23.1,30.06,NNW,338,5.6,10.3,25,0.00,,---,0.00,VWS V14.00,2013-04-22 15:05:00,
2013-04-22 08:06:00,59.2,23.4,30.06,NNW,338,4.3,6.5,25,0.00,,---,0.00,VWS V14.00,2013-04-22 15:06:00,
2013-04-22 08:09:00,59.2,22.4,30.06,NNW,338,7.8,11.0,24,0.00,,---,0.00,VWS V14.00,2013-04-22 15:09:00,
2013-04-22 08:10:00,59.4,22.6,30.06,NW,315,7.8,11.0,24,0.00,,---,0.00,VWS V14.00,2013-04-22 15:10:00,
2013-04-22 08:11:00,59.4,22.6,30.06,NNW,338,6.5,8.7,24,0.00,,---,0.00,VWS V14.00,2013-04-22 15:11:00,
2013-04-22 08:12:00,59.5,22.7,30.06,NNW,338,7.8,8.7,24,0.00,,---,0.00,VWS V14.00,2013-04-22 15:12:00,
2013-04-22 08:14:00,59.5,22.7,30.06,NNW,338,7.8,8.7,24,0.00,,---,0.00,VWS V14.00,2013-04-22 15:14:00,
2013-04-22 08:15:00,60.1,23.2,30.06,North,0,7.4,9.8,24,0.00,,---,0.00,VWS V14.00,2013-04-22 15:15:00,
2013-04-22 08:16:00,60.1,23.2,30.06,North,0,5.6,8.5,24,0.00,,---,0.00,VWS V14.00,2013-04-22 15:16:00,
2013-04-22 08:17:00,60.3,23.4,30.06,North,0,12.3,12.3,24,0.00,,---,0.00,VWS V14.00,2013-04-22 15:17:00,
2013-04-22 08:19:00,60.1,23.2,30.06,NNW,338,10.1,12.3,24,0.00,,---,0.00,VWS V14.00,2013-04-22 15:19:00,
2013-04-22 08:20:00,60.1,23.2,30.06,NNE,22,9.8,12.3,24,0.00,,---,0.00,VWS V14.00,2013-04-22 15:20:00,
2013-04-22 08:21:00,60.1,23.2,30.06,NNE,22,9.8,12.3,24,0.00,,---,0.00,VWS V14.00,2013-04-22 15:21:00,
2013-04-22 08:22:00,60.3,23.4,30.06,NNW,338,11.0,11.0,24,0.00,,---,0.00,VWS V14.00,2013-04-22 15:22:00,
2013-04-22 08:24:00,60.3,23.4,30.06,NNE,22,8.1,11.0,24,0.00,,---,0.00,VWS V14.00,2013-04-22 15:24:00,
2013-04-22 08:25:00,60.3,23.4,30.06,NNE,22,8.1,11.0,24,0.00,,---,0.00,VWS V14.00,2013-04-22 15:25:00,
2013-04-22 08:26:00,60.6,23.6,30.06,North,0,8.1,8.1,24,0.00,,---,0.00,VWS V14.00,2013-04-22 15:26:00,
2013-04-22 08:27:00,60.6,23.6,30.06,NNE,22,9.8,9.8,24,0.00,,---,0.00,VWS V14.00,2013-04-22 15:27:00,
2013-04-22 08:30:00,60.8,23.8,30.03,North,0,9.8,9.8,24,0.00,,---,0.00,VWS V14.00,2013-04-22 15:30:00,
2013-04-22 08:31:00,60.8,23.8,30.03,NNE,22,12.1,12.1,24,0.00,,---,0.00,VWS V14.00,2013-04-22 15:31:00,
2013-04-22 08:32:00,61.0,24.0,30.03,North,0,6.3,12.1,24,0.00,,---,0.00,VWS V14.00,2013-04-22 15:32:00,
2013-04-22 08:35:00,61.0,24.0,30.03,NNW,338,10.7,12.1,24,0.00,,---,0.00,VWS V14.00,2013-04-22 15:35:00,
2013-04-22 08:36:00,61.3,21.1,30.03,NNE,22,10.3,10.7,21,0.00,,---,0.00,VWS V14.00,2013-04-22 15:36:00,
2013-04-22 08:37:00,61.0,20.8,30.03,NNE,22,9.8,10.7,21,0.00,,---,0.00,VWS V14.00,2013-04-22 15:37:00,
2013-04-22 08:40:00,61.2,20.9,30.03,North,0,8.5,10.7,21,0.00,,---,0.00,VWS V14.00,2013-04-22 15:40:00,
2013-04-22 08:41:00,61.2,20.9,30.03,NNE,22,8.5,10.7,21,0.00,,---,0.00,VWS V14.00,2013-04-22 15:41:00,
2013-04-22 08:42:00,61.2,20.9,30.03,NNE,22,8.5,10.7,21,0.00,,---,0.00,VWS V14.00,2013-04-22 15:42:00,
2013-04-22 08:45:00,60.8,23.8,30.06,North,0,7.6,13.0,24,0.00,,---,0.00,VWS V14.00,2013-04-22 15:45:00,
2013-04-22 08:47:00,61.0,24.0,30.06,NNE,22,9.8,10.7,24,0.00,,---,0.00,VWS V14.00,2013-04-22 15:47:00,
2013-04-22 08:50:00,61.0,24.0,30.06,NNE,22,10.5,13.0,24,0.00,,---,0.00,VWS V14.00,2013-04-22 15:50:00,
2013-04-22 08:52:00,60.8,23.8,30.06,NNE,22,10.7,13.2,24,0.00,,---,0.00,VWS V14.00,2013-04-22 15:52:00,
2013-04-22 08:55:00,61.0,24.0,30.06,NNE,22,7.6,13.2,24,0.00,,---,0.00,VWS V14.00,2013-04-22 15:55:00,
2013-04-22 08:57:00,61.0,24.0,30.06,NNE,22,10.1,13.2,24,0.00,,---,0.00,VWS V14.00,2013-04-22 15:57:00,
2013-04-22 09:00:00,61.0,24.0,30.06,NNE,22,8.7,13.2,24,0.00,,---,0.00,VWS V14.00,2013-04-22 16:00:00,
2013-04-22 09:02:00,61.0,24.0,30.06,NNE,22,13.2,13.2,24,0.00,,---,0.00,VWS V14.00,2013-04-22 16:02:00,
2013-04-22 09:03:00,61.0,24.0,30.06,NNE,22,13.2,13.2,24,0.00,,---,0.00,VWS V14.00,2013-04-22 16:03:00,
2013-04-22 09:05:00,61.7,21.4,30.06,NNE,22,9.0,9.0,21,0.00,,---,0.00,VWS V14.00,2013-04-22 16:05:00,
2013-04-22 09:06:00,61.7,21.4,30.06,North,0,10.1,10.1,21,0.00,,---,0.00,VWS V14.00,2013-04-22 16:06:00,
2013-04-22 09:07:00,61.9,21.5,30.06,NNE,22,7.6,12.5,21,0.00,,---,0.00,VWS V14.00,2013-04-22 16:07:00,
2013-04-22 09:08:00,62.1,21.7,30.06,NNE,22,8.1,12.5,21,0.00,,---,0.00,VWS V14.00,2013-04-22 16:08:00,
2013-04-22 09:10:00,61.9,21.5,30.06,NNE,22,10.5,13.0,21,0.00,,---,0.00,VWS V14.00,2013-04-22 16:10:00,
2013-04-22 09:12:00,62.6,22.1,30.06,North,0,7.8,9.8,21,0.00,,---,0.00,VWS V14.00,2013-04-22 16:12:00,
2013-04-22 09:13:00,62.6,22.1,30.06,NNE,22,8.5,12.3,21,0.00,,---,0.00,VWS V14.00,2013-04-22 16:13:00,
2013-04-22 09:15:00,62.6,22.1,30.06,NNE,22,11.0,12.3,21,0.00,,---,0.00,VWS V14.00,2013-04-22 16:15:00,
2013-04-22 09:17:00,62.6,22.1,30.06,NNE,22,11.0,12.3,21,0.00,,---,0.00,VWS V14.00,2013-04-22 16:17:00,
2013-04-22 09:18:00,62.6,22.1,30.06,NNW,338,10.1,12.3,21,0.00,,---,0.00,VWS V14.00,2013-04-22 16:18:00,
2013-04-22 09:20:00,62.6,22.1,30.06,NNE,22,12.3,12.8,21,0.00,,---,0.00,VWS V14.00,2013-04-22 16:20:00,
2013-04-22 09:21:00,62.4,22.0,30.06,NNE,22,12.5,12.8,21,0.00,,---,0.00,VWS V14.00,2013-04-22 16:21:00,
2013-04-22 09:22:00,62.4,22.0,30.06,NNE,22,10.3,13.9,21,0.00,,---,0.00,VWS V14.00,2013-04-22 16:22:00,
2013-04-22 09:23:00,62.4,22.0,30.06,NNE,22,10.3,13.9,21,0.00,,---,0.00,VWS V14.00,2013-04-22 16:23:00,
2013-04-22 09:25:00,63.0,22.5,30.06,NNE,22,11.0,11.0,21,0.00,,---,0.00,VWS V14.00,2013-04-22 16:25:00,
2013-04-22 09:26:00,63.0,22.5,30.06,NNE,22,13.6,13.6,21,0.00,,---,0.00,VWS V14.00,2013-04-22 16:26:00,
2013-04-22 09:27:00,63.0,22.5,30.06,NNE,22,10.3,13.6,21,0.00,,---,0.00,VWS V14.00,2013-04-22 16:27:00,
2013-04-22 09:28:00,63.0,22.5,30.06,NNE,22,10.3,13.6,21,0.00,,---,0.00,VWS V14.00,2013-04-22 16:28:00,
2013-04-22 09:31:00,63.3,22.8,30.06,NNE,22,8.1,8.1,21,0.00,,---,0.00,VWS V14.00,2013-04-22 16:31:00,
2013-04-22 09:32:00,63.3,22.8,30.06,NNE,22,8.1,8.1,21,0.00,,---,0.00,VWS V14.00,2013-04-22 16:32:00,
2013-04-22 09:33:00,63.5,22.9,30.06,North,0,9.6,12.3,21,0.00,,---,0.00,VWS V14.00,2013-04-22 16:33:00,
2013-04-22 09:36:00,63.9,23.2,30.06,North,0,9.4,12.3,21,0.00,,---,0.00,VWS V14.00,2013-04-22 16:36:00,
2013-04-22 09:37:00,63.9,23.2,30.06,ENE,68,7.4,12.3,21,0.00,,---,0.00,VWS V14.00,2013-04-22 16:37:00,
2013-04-22 09:38:00,64.4,20.0,30.06,NE,45,7.6,12.3,18,0.00,,---,0.00,VWS V14.00,2013-04-22 16:38:00,
2013-04-22 09:39:00,64.4,20.0,30.06,NE,45,7.6,12.3,18,0.00,,---,0.00,VWS V14.00,2013-04-22 16:39:00,
2013-04-22 09:41:00,64.0,19.7,30.06,NE,45,7.6,12.1,18,0.00,,---,0.00,VWS V14.00,2013-04-22 16:41:00,
2013-04-22 09:42:00,63.9,19.6,30.06,NNE,22,9.6,13.9,18,0.00,,---,0.00,VWS V14.00,2013-04-22 16:42:00,
2013-04-22 09:43:00,63.9,19.6,30.06,ENE,68,8.5,13.9,18,0.00,,---,0.00,VWS V14.00,2013-04-22 16:43:00,
2013-04-22 09:44:00,63.9,19.6,30.06,NNE,22,7.6,13.9,18,0.00,,---,0.00,VWS V14.00,2013-04-22 16:44:00,
2013-04-22 09:46:00,63.9,19.6,30.06,NNE,22,7.4,7.4,18,0.00,,---,0.00,VWS V14.00,2013-04-22 16:46:00,
2013-04-22 09:47:00,63.9,19.6,30.06,NNE,22,7.4,7.4,18,0.00,,---,0.00,VWS V14.00,2013-04-22 16:47:00,
2013-04-22 09:48:00,63.9,19.6,30.06,NNE,22,7.4,7.4,18,0.00,,---,0.00,VWS V14.00,2013-04-22 16:48:00,
2013-04-22 09:49:00,63.9,19.6,30.06,North,0,8.1,8.1,18,0.00,,---,0.00,VWS V14.00,2013-04-22 16:49:00,
2013-04-22 09:51:00,65.1,20.6,30.06,NNE,22,7.6,10.3,18,0.00,,---,0.00,VWS V14.00,2013-04-22 16:51:00,
2013-04-22 09:52:00,65.1,20.6,30.06,NE,45,8.5,10.7,18,0.00,,---,0.00,VWS V14.00,2013-04-22 16:52:00,
2013-04-22 09:53:00,65.1,20.6,30.06,NE,45,8.5,10.7,18,0.00,,---,0.00,VWS V14.00,2013-04-22 16:53:00,
2013-04-22 09:54:00,64.9,20.4,30.06,NNE,22,6.5,10.7,18,0.00,,---,0.00,VWS V14.00,2013-04-22 16:54:00,
2013-04-22 09:56:00,64.9,20.4,30.06,NNE,22,11.0,11.0,18,0.00,,---,0.00,VWS V14.00,2013-04-22 16:56:00,
2013-04-22 09:57:00,65.3,20.7,30.03,NNE,22,7.8,12.3,18,0.00,,---,0.00,VWS V14.00,2013-04-22 16:57:00,
2013-04-22 09:58:00,65.7,21.0,30.03,NNE,22,7.6,12.3,18,0.00,,---,0.00,VWS V14.00,2013-04-22 16:58:00,
2013-04-22 09:59:00,65.7,21.0,30.03,North,0,10.3,13.0,18,0.00,,---,0.00,VWS V14.00,2013-04-22 16:59:00,
2013-04-22 10:02:00,65.8,21.2,30.03,East,90,8.1,10.1,18,0.00,,---,0.00,VWS V14.00,2013-04-22 17:02:00,
2013-04-22 10:03:00,65.8,21.2,30.03,East,90,8.1,10.1,18,0.00,,---,0.00,VWS V14.00,2013-04-22 17:03:00,
2013-04-22 10:05:00,65.8,21.2,30.03,NE,45,6.0,10.1,18,0.00,,---,0.00,VWS V14.00,2013-04-22 17:05:00,
2013-04-22 10:07:00,65.8,21.2,30.03,North,0,7.8,10.3,18,0.00,,---,0.00,VWS V14.00,2013-04-22 17:07:00,
2013-04-22 10:08:00,66.0,21.3,30.03,NNE,22,7.8,10.3,18,0.00,,---,0.00,VWS V14.00,2013-04-22 17:08:00,
2013-04-22 10:10:00,66.0,21.3,30.03,ENE,68,7.2,10.3,18,0.00,,---,0.00,VWS V14.00,2013-04-22 17:10:00,
2013-04-22 10:12:00,66.6,20.4,30.03,NNE,22,10.3,11.0,17,0.00,,---,0.00,VWS V14.00,2013-04-22 17:12:00,
2013-04-22 10:13:00,66.9,20.7,30.03,NNE,22,8.1,11.0,17,0.00,,---,0.00,VWS V14.00,2013-04-22 17:13:00,
2013-04-22 10:14:00,67.1,20.9,30.03,NNE,22,5.4,11.0,17,0.00,,---,0.00,VWS V14.00,2013-04-22 17:14:00,
2013-04-22 10:15:00,67.3,21.0,30.03,NNE,22,4.0,11.0,17,0.00,,---,0.00,VWS V14.00,2013-04-22 17:15:00,
2013-04-22 10:18:00,67.5,21.2,30.03,NNE,22,6.0,11.0,17,0.00,,---,0.00,VWS V14.00,2013-04-22 17:18:00,
2013-04-22 10:19:00,67.6,18.4,30.03,ENE,68,5.4,11.0,15,0.00,,---,0.00,VWS V14.00,2013-04-22 17:19:00,
2013-04-22 10:21:00,68.2,21.7,30.03,NNE,22,8.1,8.1,17,0.00,,---,0.00,VWS V14.00,2013-04-22 17:21:00,
2013-04-22 10:23:00,67.8,21.5,30.03,North,0,6.7,11.0,17,0.00,,---,0.00,VWS V14.00,2013-04-22 17:23:00,
2013-04-22 10:24:00,68.0,21.6,30.03,NNE,22,8.7,11.0,17,0.00,,---,0.00,VWS V14.00,2013-04-22 17:24:00,
2013-04-22 10:26:00,67.5,18.2,30.03,NNE,22,8.1,11.0,15,0.00,,---,0.00,VWS V14.00,2013-04-22 17:26:00,
2013-04-22 10:28:00,67.5,18.2,30.03,NNE,22,10.7,11.0,15,0.00,,---,0.00,VWS V14.00,2013-04-22 17:28:00,
2013-04-22 10:29:00,67.5,18.2,30.03,NE,45,5.6,11.0,15,0.00,,---,0.00,VWS V14.00,2013-04-22 17:29:00,
2013-04-22 10:30:00,67.5,18.2,30.03,NE,45,5.6,11.0,15,0.00,,---,0.00,VWS V14.00,2013-04-22 17:30:00,
2013-04-22 10:31:00,68.2,18.8,30.03,NNE,22,5.8,8.7,15,0.00,,---,0.00,VWS V14.00,2013-04-22 17:31:00,
2013-04-22 10:33:00,68.2,18.8,30.03,NNE,22,5.8,8.7,15,0.00,,---,0.00,VWS V14.00,2013-04-22 17:33:00,
2013-04-22 10:34:00,68.2,18.8,30.03,North,0,7.8,8.7,15,0.00,,---,0.00,VWS V14.00,2013-04-22 17:34:00,
2013-04-22 10:35:00,67.6,18.4,30.03,NNE,22,10.7,10.7,15,0.00,,---,0.00,VWS V14.00,2013-04-22 17:35:00,
2013-04-22 10:36:00,67.3,18.1,30.03,NNE,22,9.8,9.8,15,0.00,,---,0.00,VWS V14.00,2013-04-22 17:36:00,
2013-04-22 10:38:00,67.6,18.4,30.03,NNE,22,8.1,12.5,15,0.00,,---,0.00,VWS V14.00,2013-04-22 17:38:00,
2013-04-22 10:39:00,67.6,18.4,30.03,NNE,22,6.5,12.5,15,0.00,,---,0.00,VWS V14.00,2013-04-22 17:39:00,
2013-04-22 10:40:00,68.5,19.1,30.03,NNE,22,8.1,12.5,15,0.00,,---,0.00,VWS V14.00,2013-04-22 17:40:00,
2013-04-22 10:41:00,68.4,19.0,30.03,NNE,22,8.7,11.9,15,0.00,,---,0.00,VWS V14.00,2013-04-22 17:41:00,
2013-04-22 10:43:00,68.7,19.2,30.03,NNE,22,7.6,11.9,15,0.00,,---,0.00,VWS V14.00,2013-04-22 17:43:00,
2013-04-22 10:44:00,68.7,19.2,30.03,NNE,22,7.6,11.9,15,0.00,,---,0.00,VWS V14.00,2013-04-22 17:44:00,
2013-04-22 10:45:00,68.4,19.0,30.03,NE,45,8.5,11.9,15,0.00,,---,0.00,VWS V14.00,2013-04-22 17:45:00,
2013-04-22 10:46:00,68.4,19.0,30.03,NE,45,9.6,11.9,15,0.00,,---,0.00,VWS V14.00,2013-04-22 17:46:00,
2013-04-22 10:48:00,68.0,18.7,30.03,NNE,22,10.3,12.8,15,0.00,,---,0.00,VWS V14.00,2013-04-22 17:48:00,
2013-04-22 10:49:00,68.7,19.2,30.03,NE,45,4.9,12.8,15,0.00,,---,0.00,VWS V14.00,2013-04-22 17:49:00,
2013-04-22 10:50:00,68.7,19.2,30.03,NNE,22,6.9,12.8,15,0.00,,---,0.00,VWS V14.00,2013-04-22 17:50:00,
2013-04-22 10:51:00,68.7,19.2,30.03,NNE,22,7.4,11.0,15,0.00,,---,0.00,VWS V14.00,2013-04-22 17:51:00,
2013-04-22 10:54:00,69.1,19.5,30.03,NNE,22,7.2,12.3,15,0.00,,---,0.00,VWS V14.00,2013-04-22 17:54:00,
2013-04-22 10:55:00,69.4,19.8,30.03,NNE,22,8.5,12.3,15,0.00,,---,0.00,VWS V14.00,2013-04-22 17:55:00,
2013-04-22 10:56:00,69.4,19.8,30.03,NNE,22,8.5,8.5,15,0.00,,---,0.00,VWS V14.00,2013-04-22 17:56:00,
2013-04-22 10:59:00,70.2,18.8,30.03,NNW,338,5.4,10.1,14,0.00,,---,0.00,VWS V14.00,2013-04-22 17:59:00,
2013-04-22 11:00:00,69.4,19.8,30.03,NNE,22,10.7,10.7,15,0.00,,---,0.00,VWS V14.00,2013-04-22 18:00:00,
2013-04-22 11:01:00,69.4,19.8,30.03,NNE,22,10.1,10.1,15,0.00,,---,0.00,VWS V14.00,2013-04-22 18:01:00,
2013-04-22 11:04:00,70.0,18.6,30.03,NE,45,8.1,10.1,14,0.00,,---,0.00,VWS V14.00,2013-04-22 18:04:00,
2013-04-22 11:05:00,70.0,18.6,30.03,NE,45,7.2,10.1,14,0.00,,---,0.00,VWS V14.00,2013-04-22 18:05:00,
2013-04-22 11:07:00,70.0,18.6,30.03,NNE,22,7.8,8.7,14,0.00,,---,0.00,VWS V14.00,2013-04-22 18:07:00,
2013-04-22 11:09:00,71.6,19.9,30.03,NE,45,6.3,8.7,14,0.00,,---,0.00,VWS V14.00,2013-04-22 18:09:00,
2013-04-22 11:10:00,71.6,19.9,30.03,NE,45,6.3,8.7,14,0.00,,---,0.00,VWS V14.00,2013-04-22 18:10:00,
2013-04-22 11:12:00,73.0,21.1,30.03,NE,45,3.1,5.4,14,0.00,,---,0.00,VWS V14.00,2013-04-22 18:12:00,
2013-04-22 11:14:00,73.0,21.1,30.06,ENE,68,5.8,6.9,14,0.00,,---,0.00,VWS V14.00,2013-04-22 18:14:00,
2013-04-22 11:15:00,73.0,21.1,30.06,ENE,68,6.5,6.9,14,0.00,,---,0.00,VWS V14.00,2013-04-22 18:15:00,
2013-04-22 11:16:00,73.0,21.1,30.06,ENE,68,6.5,6.9,14,0.00,,---,0.00,VWS V14.00,2013-04-22 18:16:00,
2013-04-22 11:17:00,73.0,21.1,30.06,NE,45,5.6,6.9,14,0.00,,---,0.00,VWS V14.00,2013-04-22 18:17:00,
2013-04-22 11:19:00,72.1,20.4,30.06,North,0,8.5,10.7,14,0.00,,---,0.00,VWS V14.00,2013-04-22 18:19:00,
2013-04-22 11:20:00,72.1,20.4,30.06,NNE,22,7.6,10.7,14,0.00,,---,0.00,VWS V14.00,2013-04-22 18:20:00,
2013-04-22 11:21:00,72.5,20.6,30.06,NE,45,5.8,6.5,14,0.00,,---,0.00,VWS V14.00,2013-04-22 18:21:00,
2013-04-22 11:22:00,72.5,20.6,30.06,East,90,4.7,6.5,14,0.00,,---,0.00,VWS V14.00,2013-04-22 18:22:00,
2013-04-22 11:25:00,74.7,20.6,30.06,NNE,22,7.8,7.8,13,0.00,,---,0.00,VWS V14.00,2013-04-22 18:25:00,
2013-04-22 11:26:00,75.0,20.9,30.06,NNE,22,2.7,4.0,13,0.00,,---,0.00,VWS V14.00,2013-04-22 18:26:00,
2013-04-22 11:27:00,74.3,20.3,30.03,NNE,22,6.0,6.0,13,0.00,,---,0.00,VWS V14.00,2013-04-22 18:27:00,
2013-04-22 11:30:00,73.9,20.0,30.03,NNE,22,7.8,12.1,13,0.00,,---,0.00,VWS V14.00,2013-04-22 18:30:00,
2013-04-22 11:31:00,73.2,21.2,30.03,NNE,22,8.5,9.6,14,0.00,,---,0.00,VWS V14.00,2013-04-22 18:31:00,
2013-04-22 11:32:00,73.9,20.0,30.03,NNE,22,3.4,9.6,13,0.00,,---,0.00,VWS V14.00,2013-04-22 18:32:00,
2013-04-22 11:35:00,74.1,20.2,30.03,East,90,5.4,9.6,13,0.00,,---,0.00,VWS V14.00,2013-04-22 18:35:00,
2013-04-22 11:36:00,73.9,20.0,30.03,ENE,68,7.8,9.6,13,0.00,,---,0.00,VWS V14.00,2013-04-22 18:36:00,
2013-04-22 11:37:00,74.3,20.3,30.03,East,90,2.5,9.6,13,0.00,,---,0.00,VWS V14.00,2013-04-22 18:37:00,
2013-04-22 11:40:00,74.8,20.7,30.03,East,90,2.5,9.6,13,0.00,,---,0.00,VWS V14.00,2013-04-22 18:40:00,
2013-04-22 11:41:00,74.8,20.7,30.03,East,90,4.0,4.0,13,0.00,,---,0.00,VWS V14.00,2013-04-22 18:41:00,
2013-04-22 11:43:00,74.8,20.7,30.03,East,90,8.5,8.5,13,0.00,,---,0.00,VWS V14.00,2013-04-22 18:43:00,
2013-04-22 11:45:00,74.7,20.6,30.03,NE,45,4.0,8.5,13,0.00,,---,0.00,VWS V14.00,2013-04-22 18:45:00,
2013-04-22 11:46:00,75.4,21.2,30.03,East,90,3.6,4.0,13,0.00,,---,0.00,VWS V14.00,2013-04-22 18:46:00,
2013-04-22 11:48:00,75.4,21.2,30.03,East,90,5.6,5.6,13,0.00,,---,0.00,VWS V14.00,2013-04-22 18:48:00,
2013-04-22 11:50:00,75.4,21.2,30.03,SE,135,0.0,5.6,13,0.00,,---,0.00,VWS V14.00,2013-04-22 18:50:00,
2013-04-22 11:51:00,73.9,20.0,30.03,East,90,2.9,6.0,13,0.00,,---,0.00,VWS V14.00,2013-04-22 18:51:00,
2013-04-22 11:52:00,73.9,20.0,30.03,East,90,2.9,6.0,13,0.00,,---,0.00,VWS V14.00,2013-04-22 18:52:00,
2013-04-22 11:53:00,73.9,20.0,30.03,East,90,8.1,8.1,13,0.00,,---,0.00,VWS V14.00,2013-04-22 18:53:00,
2013-04-22 11:55:00,73.0,21.1,30.03,ENE,68,6.7,8.5,14,0.00,,---,0.00,VWS V14.00,2013-04-22 18:55:00,
2013-04-22 11:56:00,73.0,21.1,30.03,ENE,68,1.6,2.9,14,0.00,,---,0.00,VWS V14.00,2013-04-22 18:56:00,
2013-04-22 11:57:00,73.0,21.1,30.03,ENE,68,5.4,5.6,14,0.00,,---,0.00,VWS V14.00,2013-04-22 18:57:00,
2013-04-22 11:58:00,72.3,20.5,30.03,East,90,5.8,7.4,14,0.00,,---,0.00,VWS V14.00,2013-04-22 18:58:00,
2013-04-22 12:00:00,72.1,20.4,30.03,SSE,158,2.0,7.4,14,0.00,,---,0.00,VWS V14.00,2013-04-22 19:00:00,
2013-04-22 12:01:00,72.1,20.4,30.03,SE,135,0.0,2.0,14,0.00,,---,0.00,VWS V14.00,2013-04-22 19:01:00,
2013-04-22 12:02:00,72.1,20.4,30.03,East,90,4.9,4.9,14,0.00,,---,0.00,VWS V14.00,2013-04-22 19:02:00,
2013-04-22 12:04:00,72.7,20.8,30.03,NNE,22,8.5,8.5,14,0.00,,---,0.00,VWS V14.00,2013-04-22 19:04:00,
2013-04-22 12:05:00,72.3,20.5,30.03,NNE,22,6.5,10.1,14,0.00,,---,0.00,VWS V14.00,2013-04-22 19:05:00,
2013-04-22 12:06:00,72.3,20.5,30.03,NE,45,4.3,10.1,14,0.00,,---,0.00,VWS V14.00,2013-04-22 19:06:00,
2013-04-22 12:07:00,72.3,20.5,30.03,NE,45,4.3,10.1,14,0.00,,---,0.00,VWS V14.00,2013-04-22 19:07:00,
2013-04-22 12:09:00,72.3,20.5,30.03,ENE,68,3.1,10.1,14,0.00,,---,0.00,VWS V14.00,2013-04-22 19:09:00,
2013-04-22 12:10:00,72.3,20.5,30.03,NNE,22,4.3,4.3,14,0.00,,---,0.00,VWS V14.00,2013-04-22 19:10:00,
2013-04-22 12:11:00,72.3,20.5,30.03,North,0,3.1,5.6,14,0.00,,---,0.00,VWS V14.00,2013-04-22 19:11:00,
2013-04-22 12:12:00,72.3,20.5,30.03,NE,45,2.7,5.6,14,0.00,,---,0.00,VWS V14.00,2013-04-22 19:12:00,
2013-04-22 12:14:00,71.8,20.1,30.03,NE,45,7.4,7.4,14,0.00,,---,0.00,VWS V14.00,2013-04-22 19:14:00,
2013-04-22 12:16:00,71.8,20.1,30.03,NE,45,5.4,5.4,14,0.00,,---,0.00,VWS V14.00,2013-04-22 19:16:00,
2013-04-22 12:17:00,71.8,20.1,30.03,NE,45,5.4,5.4,14,0.00,,---,0.00,VWS V14.00,2013-04-22 19:17:00,
2013-04-22 12:19:00,71.8,20.1,30.03,NNE,22,4.3,7.4,14,0.00,,---,0.00,VWS V14.00,2013-04-22 19:19:00,
2013-04-22 12:21:00,71.8,20.1,30.03,East,90,4.9,7.6,14,0.00,,---,0.00,VWS V14.00,2013-04-22 19:21:00,
2013-04-22 12:22:00,71.8,20.1,30.03,SSE,158,5.6,5.6,14,0.00,,---,0.00,VWS V14.00,2013-04-22 19:22:00,
2013-04-22 12:23:00,71.8,20.1,30.03,SE,135,6.5,6.5,14,0.00,,---,0.00,VWS V14.00,2013-04-22 19:23:00,
2013-04-22 12:24:00,71.8,20.1,30.03,ENE,68,4.0,6.5,14,0.00,,---,0.00,VWS V14.00,2013-04-22 19:24:00,
2013-04-22 12:26:00,72.0,20.2,30.03,NE,45,7.2,10.3,14,0.00,,---,0.00,VWS V14.00,2013-04-22 19:26:00,
2013-04-22 12:27:00,71.6,19.9,30.03,NE,45,6.0,10.3,14,0.00,,---,0.00,VWS V14.00,2013-04-22 19:27:00,
2013-04-22 12:28:00,71.2,19.6,30.00,ENE,68,6.5,10.3,14,0.00,,---,0.00,VWS V14.00,2013-04-22 19:28:00,
2013-04-22 12:29:00,71.2,19.6,30.00,East,90,10.7,10.7,14,0.00,,---,0.00,VWS V14.00,2013-04-22 19:29:00,
2013-04-22 12:31:00,71.2,19.6,30.00,NNE,22,8.7,10.7,14,0.00,,---,0.00,VWS V14.00,2013-04-22 19:31:00,
2013-04-22 12:32:00,71.1,19.5,30.00,NNE,22,6.0,8.7,14,0.00,,---,0.00,VWS V14.00,2013-04-22 19:32:00,
2013-04-22 12:33:00,70.9,19.4,30.00,NE,45,6.0,8.7,14,0.00,,---,0.00,VWS V14.00,2013-04-22 19:33:00,
2013-04-22 12:34:00,70.9,19.4,30.00,ENE,68,9.8,9.8,14,0.00,,---,0.00,VWS V14.00,2013-04-22 19:34:00,
2013-04-22 12:36:00,71.2,19.6,30.00,East,90,4.0,5.8,14,0.00,,---,0.00,VWS V14.00,2013-04-22 19:36:00,
2013-04-22 12:37:00,71.2,19.6,30.00,East,90,4.0,5.8,14,0.00,,---,0.00,VWS V14.00,2013-04-22 19:37:00,
2013-04-22 12:38:00,71.2,19.6,30.00,East,90,4.0,5.8,14,0.00,,---,0.00,VWS V14.00,2013-04-22 19:38:00,
2013-04-22 12:39:00,71.2,19.6,30.00,ENE,68,3.8,5.8,14,0.00,,---,0.00,VWS V14.00,2013-04-22 19:39:00,
2013-04-22 12:41:00,71.8,20.1,30.00,East,90,4.5,7.2,14,0.00,,---,0.00,VWS V14.00,2013-04-22 19:41:00,
2013-04-22 12:42:00,71.8,20.1,30.00,NE,45,4.0,7.2,14,0.00,,---,0.00,VWS V14.00,2013-04-22 19:42:00,
2013-04-22 12:43:00,71.8,20.1,30.00,East,90,6.3,7.2,14,0.00,,---,0.00,VWS V14.00,2013-04-22 19:43:00,
2013-04-22 12:45:00,71.8,20.1,30.00,NE,45,5.4,7.8,14,0.00,,---,0.00,VWS V14.00,2013-04-22 19:45:00,
2013-04-22 12:46:00,72.0,20.2,30.00,North,0,5.4,7.8,14,0.00,,---,0.00,VWS V14.00,2013-04-22 19:46:00,
2013-04-22 12:47:00,71.8,20.1,30.00,NE,45,3.1,7.8,14,0.00,,---,0.00,VWS V14.00,2013-04-22 19:47:00,
2013-04-22 12:48:00,72.0,20.2,30.00,NE,45,4.7,7.8,14,0.00,,---,0.00,VWS V14.00,2013-04-22 19:48:00,
2013-04-22 12:50:00,72.3,20.5,30.00,NE,45,3.6,8.7,14,0.00,,---,0.00,VWS V14.00,2013-04-22 19:50:00,
2013-04-22 12:51:00,72.3,20.5,30.00,NNE,22,8.5,8.5,14,0.00,,---,0.00,VWS V14.00,2013-04-22 19:51:00,
2013-04-22 12:52:00,71.8,20.1,30.00,NNE,22,10.3,10.3,14,0.00,,---,0.00,VWS V14.00,2013-04-22 19:52:00,
2013-04-22 12:53:00,71.8,20.1,30.00,NE,45,8.1,10.5,14,0.00,,---,0.00,VWS V14.00,2013-04-22 19:53:00,
2013-04-22 12:55:00,71.8,20.1,30.00,NE,45,5.4,10.5,14,0.00,,---,0.00,VWS V14.00,2013-04-22 19:55:00,
2013-04-22 12:56:00,72.0,20.2,30.00,NE,45,6.3,7.2,14,0.00,,---,0.00,VWS V14.00,2013-04-22 19:56:00,
2013-04-22 12:57:00,72.0,20.2,30.00,NE,45,6.3,7.2,14,0.00,,---,0.00,VWS V14.00,2013-04-22 19:57:00,
2013-04-22 12:58:00,72.5,20.6,30.00,East,90,5.8,7.2,14,0.00,,---,0.00,VWS V14.00,2013-04-22 19:58:00,
2013-04-22 13:01:00,72.5,20.6,30.00,NNE,22,5.4,8.1,14,0.00,,---,0.00,VWS V14.00,2013-04-22 20:01:00,
2013-04-22 13:02:00,72.5,20.6,30.00,NNE,22,5.4,8.1,14,0.00,,---,0.00,VWS V14.00,2013-04-22 20:02:00,
2013-04-22 13:03:00,72.5,20.6,30.00,NE,45,10.1,10.1,14,0.00,,---,0.00,VWS V14.00,2013-04-22 20:03:00,
2013-04-22 13:04:00,72.5,20.6,30.00,NE,45,7.4,10.1,14,0.00,,---,0.00,VWS V14.00,2013-04-22 20:04:00,
2013-04-22 13:06:00,72.1,20.4,30.00,North,0,6.3,7.6,14,0.00,,---,0.00,VWS V14.00,2013-04-22 20:06:00,
2013-04-22 13:07:00,72.7,20.8,30.00,ENE,68,7.4,9.8,14,0.00,,---,0.00,VWS V14.00,2013-04-22 20:07:00,
2013-04-22 13:08:00,72.7,20.8,30.00,ENE,68,10.1,10.1,14,0.00,,---,0.00,VWS V14.00,2013-04-22 20:08:00,
2013-04-22 13:09:00,72.7,20.8,30.00,NNE,22,8.7,10.1,14,0.00,,---,0.00,VWS V14.00,2013-04-22 20:09:00,
2013-04-22 13:11:00,72.9,20.9,30.00,ENE,68,3.1,10.1,14,0.00,,---,0.00,VWS V14.00,2013-04-22 20:11:00,
2013-04-22 13:12:00,72.7,20.8,30.00,NNE,22,3.1,10.1,14,0.00,,---,0.00,VWS V14.00,2013-04-22 20:12:00,
2013-04-22 13:13:00,73.0,21.1,30.00,NNE,22,6.0,10.1,14,0.00,,---,0.00,VWS V14.00,2013-04-22 20:13:00,
2013-04-22 13:14:00,73.2,21.2,30.00,NE,45,7.8,10.1,14,0.00,,---,0.00,VWS V14.00,2013-04-22 20:14:00,
2013-04-22 13:16:00,73.2,21.2,30.00,NE,45,4.9,7.8,14,0.00,,---,0.00,VWS V14.00,2013-04-22 20:16:00,
2013-04-22 13:17:00,73.6,19.8,30.00,NNE,22,6.3,9.4,13,0.00,,---,0.00,VWS V14.00,2013-04-22 20:17:00,
2013-04-22 13:18:00,73.6,19.8,30.00,NNE,22,8.1,9.4,13,0.00,,---,0.00,VWS V14.00,2013-04-22 20:18:00,
2013-04-22 13:19:00,73.6,19.8,30.00,ENE,68,6.0,9.4,13,0.00,,---,0.00,VWS V14.00,2013-04-22 20:19:00,
2013-04-22 13:21:00,73.9,20.0,30.00,NE,45,6.0,6.0,13,0.00,,---,0.00,VWS V14.00,2013-04-22 20:21:00,
2013-04-22 13:22:00,74.3,20.3,30.00,East,90,5.4,6.3,13,0.00,,---,0.00,VWS V14.00,2013-04-22 20:22:00,
2013-04-22 13:23:00,74.3,20.3,30.00,ESE,112,6.3,8.1,13,0.00,,---,0.00,VWS V14.00,2013-04-22 20:23:00,
2013-04-22 13:24:00,74.3,20.3,30.00,ESE,112,6.3,8.1,13,0.00,,---,0.00,VWS V14.00,2013-04-22 20:24:00,
2013-04-22 13:26:00,74.3,20.3,30.00,East,90,9.8,9.8,13,0.00,,---,0.00,VWS V14.00,2013-04-22 20:26:00,
2013-04-22 13:28:00,74.3,20.3,30.00,East,90,7.4,9.8,13,0.00,,---,0.00,VWS V14.00,2013-04-22 20:28:00,
2013-04-22 13:29:00,74.7,20.6,30.00,ENE,68,7.2,9.8,13,0.00,,---,0.00,VWS V14.00,2013-04-22 20:29:00,
2013-04-22 13:31:00,74.7,20.6,30.00,East,90,6.3,7.6,13,0.00,,---,0.00,VWS V14.00,2013-04-22 20:31:00,
2013-04-22 13:33:00,74.7,20.6,30.00,ENE,68,5.4,7.6,13,0.00,,---,0.00,VWS V14.00,2013-04-22 20:33:00,
2013-04-22 13:34:00,74.7,20.6,30.00,NNE,22,10.1,10.1,13,0.00,,---,0.00,VWS V14.00,2013-04-22 20:34:00,
2013-04-22 13:37:00,74.7,20.6,30.00,NE,45,4.9,10.1,13,0.00,,---,0.00,VWS V14.00,2013-04-22 20:37:00,
2013-04-22 13:38:00,74.7,20.6,30.00,NE,45,4.9,10.1,13,0.00,,---,0.00,VWS V14.00,2013-04-22 20:38:00,
2013-04-22 13:39:00,74.7,20.6,30.00,NNE,22,5.4,10.1,13,0.00,,---,0.00,VWS V14.00,2013-04-22 20:39:00,
2013-04-22 13:42:00,74.7,20.6,30.00,ENE,68,8.7,8.7,13,0.00,,---,0.00,VWS V14.00,2013-04-22 20:42:00,
2013-04-22 13:43:00,74.7,20.6,30.00,ENE,68,8.7,8.7,13,0.00,,---,0.00,VWS V14.00,2013-04-22 20:43:00,
2013-04-22 13:44:00,74.7,20.6,30.00,East,90,5.8,8.7,13,0.00,,---,0.00,VWS V14.00,2013-04-22 20:44:00,
2013-04-22 13:45:00,74.7,20.6,30.00,East,90,6.0,8.7,13,0.00,,---,0.00,VWS V14.00,2013-04-22 20:45:00,
2013-04-22 13:47:00,74.7,20.6,30.00,NNE,22,9.4,9.4,13,0.00,,---,0.00,VWS V14.00,2013-04-22 20:47:00,
2013-04-22 13:48:00,74.7,20.6,30.00,NNE,22,9.4,9.4,13,0.00,,---,0.00,VWS V14.00,2013-04-22 20:48:00,
2013-04-22 13:49:00,75.7,21.5,30.00,NNW,338,4.9,9.4,13,0.00,,---,0.00,VWS V14.00,2013-04-22 20:49:00,
2013-04-22 13:50:00,75.7,21.5,30.00,SE,135,4.0,9.4,13,0.00,,---,0.00,VWS V14.00,2013-04-22 20:50:00,
2013-04-22 13:52:00,75.9,21.6,30.00,NE,45,5.4,5.4,13,0.00,,---,0.00,VWS V14.00,2013-04-22 20:52:00,
2013-04-22 13:53:00,75.4,21.2,30.00,NNE,22,6.3,11.0,13,0.00,,---,0.00,VWS V14.00,2013-04-22 20:53:00,
2013-04-22 13:54:00,75.4,21.2,30.00,NNE,22,6.3,11.0,13,0.00,,---,0.00,VWS V14.00,2013-04-22 20:54:00,
2013-04-22 13:55:00,75.4,21.2,30.00,NNE,22,6.3,11.0,13,0.00,,---,0.00,VWS V14.00,2013-04-22 20:55:00,
2013-04-22 13:58:00,75.6,21.3,30.00,ENE,68,2.5,7.6,13,0.00,,---,0.00,VWS V14.00,2013-04-22 20:58:00,
2013-04-22 13:59:00,75.6,21.3,30.00,SE,135,0.0,7.6,13,0.00,,---,0.00,VWS V14.00,2013-04-22 20:59:00,
2013-04-22 14:00:00,75.6,21.3,30.00,NE,45,4.0,7.6,13,0.00,,---,0.00,VWS V14.00,2013-04-22 21:00:00,
2013-04-22 14:03:00,77.9,23.1,30.00,NNE,22,8.7,8.7,13,0.00,,---,0.00,VWS V14.00,2013-04-22 21:03:00,
2013-04-22 14:04:00,77.9,23.1,30.00,NNE,22,8.7,8.7,13,0.00,,---,0.00,VWS V14.00,2013-04-22 21:04:00,
2013-04-22 14:05:00,76.1,21.7,30.00,NNE,22,11.9,11.9,13,0.00,,---,0.00,VWS V14.00,2013-04-22 21:05:00,
2013-04-22 14:08:00,75.7,21.5,30.00,NNE,22,12.8,14.5,13,0.00,,---,0.00,VWS V14.00,2013-04-22 21:08:00,
2013-04-22 14:09:00,74.5,20.5,30.00,NNE,22,8.7,14.5,13,0.00,,---,0.00,VWS V14.00,2013-04-22 21:09:00,
2013-04-22 14:10:00,74.5,20.5,30.00,NNE,22,7.4,14.5,13,0.00,,---,0.00,VWS V14.00,2013-04-22 21:10:00,
2013-04-22 14:13:00,74.5,20.5,30.00,NE,45,6.3,8.1,13,0.00,,---,0.00,VWS V14.00,2013-04-22 21:13:00,
2013-04-22 14:14:00,74.5,20.5,30.00,NE,45,6.3,8.1,13,0.00,,---,0.00,VWS V14.00,2013-04-22 21:14:00,
2013-04-22 14:15:00,74.5,20.5,30.00,NE,45,6.3,8.1,13,0.00,,---,0.00,VWS V14.00,2013-04-22 21:15:00,
2013-04-22 14:18:00,75.9,21.6,30.00,NW,315,6.0,8.1,13,0.00,,---,0.00,VWS V14.00,2013-04-22 21:18:00,
2013-04-22 14:19:00,75.6,21.3,29.97,NE,45,7.8,8.1,13,0.00,,---,0.00,VWS V14.00,2013-04-22 21:19:00,
2013-04-22 14:20:00,75.6,21.3,29.97,NNE,22,6.5,8.1,13,0.00,,---,0.00,VWS V14.00,2013-04-22 21:20:00,
2013-04-22 14:21:00,76.1,21.7,29.97,NNE,22,4.3,5.4,13,0.00,,---,0.00,VWS V14.00,2013-04-22 21:21:00,
2013-04-22 14:23:00,76.1,21.7,29.97,ENE,68,4.9,8.7,13,0.00,,---,0.00,VWS V14.00,2013-04-22 21:23:00,
2013-04-22 14:25:00,76.8,22.3,29.97,NNE,22,8.5,8.7,13,0.00,,---,0.00,VWS V14.00,2013-04-22 21:25:00,
2013-04-22 14:26:00,76.5,22.0,29.97,NE,45,7.6,8.1,13,0.00,,---,0.00,VWS V14.00,2013-04-22 21:26:00,
2013-04-22 14:29:00,75.4,21.2,30.00,North,0,6.5,10.3,13,0.00,,---,0.00,VWS V14.00,2013-04-22 21:29:00,
2013-04-22 14:30:00,75.4,21.2,30.00,NE,45,5.4,10.3,13,0.00,,---,0.00,VWS V14.00,2013-04-22 21:30:00,
2013-04-22 14:31:00,75.4,21.2,30.00,NNW,338,10.3,10.7,13,0.00,,---,0.00,VWS V14.00,2013-04-22 21:31:00,
2013-04-22 14:34:00,75.4,21.2,30.00,NNE,22,7.4,12.1,13,0.00,,---,0.00,VWS V14.00,2013-04-22 21:34:00,
2013-04-22 14:35:00,75.4,21.2,30.00,NNE,22,5.6,12.1,13,0.00,,---,0.00,VWS V14.00,2013-04-22 21:35:00,
2013-04-22 14:36:00,75.4,21.2,30.00,ENE,68,7.6,7.8,13,0.00,,---,0.00,VWS V14.00,2013-04-22 21:36:00,
2013-04-22 14:39:00,75.4,21.2,30.00,NNE,22,6.5,11.0,13,0.00,,---,0.00,VWS V14.00,2013-04-22 21:39:00,
2013-04-22 14:40:00,75.4,21.2,30.00,NE,45,8.1,11.0,13,0.00,,---,0.00,VWS V14.00,2013-04-22 21:40:00,
2013-04-22 14:41:00,76.3,21.9,30.00,NNE,22,5.6,8.1,13,0.00,,---,0.00,VWS V14.00,2013-04-22 21:41:00,
2013-04-22 14:44:00,75.6,21.3,29.97,NE,45,6.5,11.0,13,0.00,,---,0.00,VWS V14.00,2013-04-22 21:44:00,
2013-04-22 14:45:00,75.4,21.2,29.97,NNE,22,7.8,11.0,13,0.00,,---,0.00,VWS V14.00,2013-04-22 21:45:00,
2013-04-22 14:46:00,75.4,21.2,29.97,NNE,22,7.2,7.8,13,0.00,,---,0.00,VWS V14.00,2013-04-22 21:46:00,
2013-04-22 14:49:00,76.5,22.0,29.97,NNE,22,6.0,8.7,13,0.00,,---,0.00,VWS V14.00,2013-04-22 21:49:00,
2013-04-22 14:50:00,76.5,22.0,29.97,NE,45,7.8,8.7,13,0.00,,---,0.00,VWS V14.00,2013-04-22 21:50:00,
2013-04-22 14:51:00,76.5,22.0,29.97,NNE,22,10.3,10.3,13,0.00,,---,0.00,VWS V14.00,2013-04-22 21:51:00,
2013-04-22 14:54:00,76.5,22.0,29.97,NNE,22,5.6,10.3,13,0.00,,---,0.00,VWS V14.00,2013-04-22 21:54:00,
2013-04-22 14:55:00,76.5,22.0,29.97,ENE,68,5.4,10.3,13,0.00,,---,0.00,VWS V14.00,2013-04-22 21:55:00,
2013-04-22 14:56:00,76.5,22.0,29.97,NE,45,7.4,7.4,13,0.00,,---,0.00,VWS V14.00,2013-04-22 21:56:00,
2013-04-22 15:00:00,76.5,22.0,29.97,NNE,22,7.4,10.7,13,0.00,,---,0.00,VWS V14.00,2013-04-22 22:00:00,
2013-04-22 15:01:00,76.5,22.0,29.97,NNW,338,6.3,6.3,13,0.00,,---,0.00,VWS V14.00,2013-04-22 22:01:00,
2013-04-22 15:05:00,76.5,22.0,29.97,NE,45,7.4,9.6,13,0.00,,---,0.00,VWS V14.00,2013-04-22 22:05:00,
2013-04-22 15:06:00,76.1,21.7,29.97,NNE,22,7.6,8.7,13,0.00,,---,0.00,VWS V14.00,2013-04-22 22:06:00,
2013-04-22 15:07:00,76.1,21.7,29.97,NE,45,6.5,8.7,13,0.00,,---,0.00,VWS V14.00,2013-04-22 22:07:00,
2013-04-22 15:10:00,76.5,22.0,29.97,NNE,22,7.6,10.1,13,0.00,,---,0.00,VWS V14.00,2013-04-22 22:10:00,
2013-04-22 15:12:00,76.1,21.7,29.97,ENE,68,6.5,11.2,13,0.00,,---,0.00,VWS V14.00,2013-04-22 22:12:00,
2013-04-22 15:15:00,75.6,21.3,29.97,NNW,338,8.7,12.8,13,0.00,,---,0.00,VWS V14.00,2013-04-22 22:15:00,
2013-04-22 15:16:00,75.6,21.3,29.97,NNW,338,8.7,12.8,13,0.00,,---,0.00,VWS V14.00,2013-04-22 22:16:00,
2013-04-22 15:17:00,74.8,20.7,29.97,NNE,22,12.8,12.8,13,0.00,,---,0.00,VWS V14.00,2013-04-22 22:17:00,
2013-04-22 15:20:00,74.5,20.5,29.97,NNE,22,8.5,14.5,13,0.00,,---,0.00,VWS V14.00,2013-04-22 22:20:00,
2013-04-22 15:21:00,74.5,20.5,29.97,NNE,22,8.5,14.5,13,0.00,,---,0.00,VWS V14.00,2013-04-22 22:21:00,
2013-04-22 15:22:00,74.5,20.5,29.97,NNE,22,4.9,14.5,13,0.00,,---,0.00,VWS V14.00,2013-04-22 22:22:00,
2013-04-22 15:25:00,74.5,20.5,29.97,NNE,22,8.5,14.5,13,0.00,,---,0.00,VWS V14.00,2013-04-22 22:25:00,
2013-04-22 15:26:00,75.6,21.3,29.97,NNE,22,8.5,11.0,13,0.00,,---,0.00,VWS V14.00,2013-04-22 22:26:00,
2013-04-22 15:27:00,75.6,21.3,29.97,North,0,7.4,11.0,13,0.00,,---,0.00,VWS V14.00,2013-04-22 22:27:00,
2013-04-22 15:30:00,75.6,21.3,29.94,NNE,22,8.5,12.3,13,0.00,,---,0.00,VWS V14.00,2013-04-22 22:30:00,
2013-04-22 15:31:00,75.6,21.3,29.94,NNW,338,8.5,12.3,13,0.00,,---,0.00,VWS V14.00,2013-04-22 22:31:00,
2013-04-22 15:32:00,75.6,21.3,29.94,NNW,338,8.5,12.3,13,0.00,,---,0.00,VWS V14.00,2013-04-22 22:32:00,
2013-04-22 15:35:00,75.6,21.3,29.94,North,0,12.3,12.3,13,0.00,,---,0.00,VWS V14.00,2013-04-22 22:35:00,
2013-04-22 15:37:00,75.6,21.3,29.94,North,0,8.7,8.7,13,0.00,,---,0.00,VWS V14.00,2013-04-22 22:37:00,
2013-04-22 15:38:00,75.6,21.3,29.94,NNE,22,10.5,10.5,13,0.00,,---,0.00,VWS V14.00,2013-04-22 22:38:00,
2013-04-22 15:41:00,74.7,20.6,29.94,NNE,22,7.6,10.1,13,0.00,,---,0.00,VWS V14.00,2013-04-22 22:41:00,
2013-04-22 15:42:00,74.7,20.6,29.94,NNE,22,7.6,10.1,13,0.00,,---,0.00,VWS V14.00,2013-04-22 22:42:00,
2013-04-22 15:43:00,74.7,20.6,29.91,NE,45,5.4,10.1,13,0.00,,---,0.00,VWS V14.00,2013-04-22 22:43:00,
2013-04-22 15:46:00,74.7,20.6,29.91,NNE,22,13.2,13.2,13,0.00,,---,0.00,VWS V14.00,2013-04-22 22:46:00,
2013-04-22 15:47:00,74.7,20.6,29.91,NNE,22,8.5,13.2,13,0.00,,---,0.00,VWS V14.00,2013-04-22 22:47:00,
2013-04-22 15:48:00,74.7,20.6,29.91,NNE,22,6.5,13.2,13,0.00,,---,0.00,VWS V14.00,2013-04-22 22:48:00,
2013-04-22 15:49:00,74.7,20.6,29.91,NNE,22,8.5,13.4,13,0.00,,---,0.00,VWS V14.00,2013-04-22 22:49:00,
2013-04-22 15:51:00,74.3,20.3,29.91,North,0,10.1,10.3,13,0.00,,---,0.00,VWS V14.00,2013-04-22 22:51:00,
2013-04-22 15:52:00,74.3,20.3,29.91,North,0,10.1,10.3,13,0.00,,---,0.00,VWS V14.00,2013-04-22 22:52:00,
2013-04-22 15:53:00,74.3,20.3,29.91,North,0,15.4,15.4,13,0.00,,---,0.00,VWS V14.00,2013-04-22 22:53:00,
2013-04-22 15:54:00,73.9,20.0,29.91,North,0,10.1,15.4,13,0.00,,---,0.00,VWS V14.00,2013-04-22 22:54:00,
2013-04-22 15:56:00,73.6,19.8,29.91,NNW,338,12.1,16.8,13,0.00,,---,0.00,VWS V14.00,2013-04-22 22:56:00,
2013-04-22 15:57:00,73.6,19.8,29.91,NNE,22,12.8,16.8,13,0.00,,---,0.00,VWS V14.00,2013-04-22 22:57:00,
2013-04-22 15:58:00,73.8,19.9,29.94,North,0,8.1,16.8,13,0.00,,---,0.00,VWS V14.00,2013-04-22 22:58:00,
2013-04-22 15:59:00,74.1,20.2,29.94,NNE,22,7.8,16.8,13,0.00,,---,0.00,VWS V14.00,2013-04-22 22:59:00,
2013-04-22 16:01:00,73.6,19.8,29.94,NNE,22,13.2,14.8,13,0.00,,---,0.00,VWS V14.00,2013-04-22 23:01:00,
2013-04-22 16:02:00,73.8,19.9,29.94,NNE,22,6.5,14.8,13,0.00,,---,0.00,VWS V14.00,2013-04-22 23:02:00,
2013-04-22 16:03:00,73.8,19.9,29.94,North,0,14.5,14.8,13,0.00,,---,0.00,VWS V14.00,2013-04-22 23:03:00,
2013-04-22 16:04:00,73.8,19.9,29.94,NNE,22,14.5,14.8,13,0.00,,---,0.00,VWS V14.00,2013-04-22 23:04:00,
2013-04-22 16:06:00,73.2,21.2,29.94,North,0,12.3,14.8,14,0.00,,---,0.00,VWS V14.00,2013-04-22 23:06:00,
2013-04-22 16:08:00,73.0,21.1,29.94,NNE,22,10.3,15.2,14,0.00,,---,0.00,VWS V14.00,2013-04-22 23:08:00,
2013-04-22 16:09:00,73.0,21.1,29.94,NNE,22,8.7,15.2,14,0.00,,---,0.00,VWS V14.00,2013-04-22 23:09:00,
2013-04-22 16:12:00,73.2,21.2,29.94,NNE,22,9.8,13.0,14,0.00,,---,0.00,VWS V14.00,2013-04-22 23:12:00,
2013-04-22 16:13:00,73.0,21.1,29.94,NNE,22,7.8,13.0,14,0.00,,---,0.00,VWS V14.00,2013-04-22 23:13:00,
2013-04-22 16:14:00,73.2,21.2,29.94,NNE,22,7.8,13.0,14,0.00,,---,0.00,VWS V14.00,2013-04-22 23:14:00,
2013-04-22 16:17:00,73.2,21.2,29.94,NNE,22,7.6,7.8,14,0.00,,---,0.00,VWS V14.00,2013-04-22 23:17:00,
2013-04-22 16:18:00,73.4,19.6,29.94,NNE,22,8.7,12.8,13,0.00,,---,0.00,VWS V14.00,2013-04-22 23:18:00,
2013-04-22 16:20:00,73.2,21.2,29.94,NNW,338,9.8,12.8,14,0.00,,---,0.00,VWS V14.00,2013-04-22 23:20:00,
2013-04-22 16:22:00,73.0,21.1,29.94,North,0,13.0,13.0,14,0.00,,---,0.00,VWS V14.00,2013-04-22 23:22:00,
2013-04-22 16:23:00,73.0,21.1,29.94,NNE,22,9.8,13.0,14,0.00,,---,0.00,VWS V14.00,2013-04-22 23:23:00,
2013-04-22 16:25:00,73.4,19.6,29.94,North,0,13.2,13.2,13,0.00,,---,0.00,VWS V14.00,2013-04-22 23:25:00,
2013-04-22 16:27:00,72.5,20.6,29.94,NE,45,10.3,17.2,14,0.00,,---,0.00,VWS V14.00,2013-04-22 23:27:00,
2013-04-22 16:28:00,72.5,20.6,29.94,NNE,22,12.8,17.2,14,0.00,,---,0.00,VWS V14.00,2013-04-22 23:28:00,
2013-04-22 16:30:00,72.5,20.6,29.91,NNE,22,11.0,17.2,14,0.00,,---,0.00,VWS V14.00,2013-04-22 23:30:00,
2013-04-22 16:32:00,72.3,20.5,29.91,NNE,22,10.1,12.8,14,0.00,,---,0.00,VWS V14.00,2013-04-22 23:32:00,
2013-04-22 16:33:00,72.5,20.6,29.91,NNE,22,14.3,14.3,14,0.00,,---,0.00,VWS V14.00,2013-04-22 23:33:00,
2013-04-22 16:34:00,72.5,20.6,29.91,NNE,22,12.1,14.3,14,0.00,,---,0.00,VWS V14.00,2013-04-22 23:34:00,
2013-04-22 16:35:00,72.5,20.6,29.91,NE,45,9.8,14.3,14,0.00,,---,0.00,VWS V14.00,2013-04-22 23:35:00,
2013-04-22 16:37:00,72.5,20.6,29.91,NE,45,9.8,9.8,14,0.00,,---,0.00,VWS V14.00,2013-04-22 23:37:00,
2013-04-22 16:38:00,72.9,20.9,29.91,NE,45,5.6,9.8,14,0.00,,---,0.00,VWS V14.00,2013-04-22 23:38:00,
2013-04-22 16:39:00,72.9,20.9,29.91,NE,45,5.6,9.8,14,0.00,,---,0.00,VWS V14.00,2013-04-22 23:39:00,
2013-04-22 16:40:00,73.0,21.1,29.91,East,90,8.5,12.5,14,0.00,,---,0.00,VWS V14.00,2013-04-22 23:40:00,
2013-04-22 16:42:00,73.0,21.1,29.91,NNE,22,8.1,12.5,14,0.00,,---,0.00,VWS V14.00,2013-04-22 23:42:00,
2013-04-22 16:43:00,72.7,20.8,29.94,NNE,22,10.5,15.2,14,0.00,,---,0.00,VWS V14.00,2013-04-22 23:43:00,
2013-04-22 16:44:00,72.7,20.8,29.94,NNE,22,10.5,15.2,14,0.00,,---,0.00,VWS V14.00,2013-04-22 23:44:00,
2013-04-22 16:45:00,72.7,20.8,29.94,NE,45,9.8,9.8,14,0.00,,---,0.00,VWS V14.00,2013-04-22 23:45:00,
2013-04-22 16:47:00,72.7,20.8,29.94,NE,45,12.8,17.2,14,0.00,,---,0.00,VWS V14.00,2013-04-22 23:47:00,
2013-04-22 16:48:00,71.8,20.1,29.94,NNE,22,12.5,17.2,14,0.00,,---,0.00,VWS V14.00,2013-04-22 23:48:00,
2013-04-22 16:49:00,71.8,20.1,29.94,North,0,10.3,17.2,14,0.00,,---,0.00,VWS V14.00,2013-04-22 23:49:00,
2013-04-22 16:50:00,71.8,20.1,29.94,NNE,22,10.1,17.2,14,0.00,,---,0.00,VWS V14.00,2013-04-22 23:50:00,
2013-04-22 16:52:00,71.8,20.1,29.94,NNE,22,15.2,17.5,14,0.00,,---,0.00,VWS V14.00,2013-04-22 23:52:00,
2013-04-22 16:54:00,71.8,20.1,29.94,NNE,22,15.2,17.5,14,0.00,,---,0.00,VWS V14.00,2013-04-22 23:54:00,
2013-04-22 16:56:00,70.7,19.2,29.94,NNE,22,10.5,10.7,14,0.00,,---,0.00,VWS V14.00,2013-04-22 23:56:00,
2013-04-22 16:57:00,70.3,18.9,29.94,North,0,13.2,17.2,14,0.00,,---,0.00,VWS V14.00,2013-04-22 23:57:00,
2013-04-22 16:59:00,70.3,18.9,29.94,North,0,9.4,17.2,14,0.00,,---,0.00,VWS V14.00,2013-04-22 23:59:00,
2013-04-22 17:01:00,70.9,19.4,29.94,NE,45,11.0,17.2,14,0.00,,---,0.00,VWS V14.00,2013-04-23 00:01:00,
2013-04-22 17:03:00,70.7,19.2,29.94,NNE,22,12.5,17.2,14,0.00,,---,0.00,VWS V14.00,2013-04-23 00:03:00,
2013-04-22 17:04:00,70.3,18.9,29.94,NNE,22,17.5,17.5,14,0.00,,---,0.00,VWS V14.00,2013-04-23 00:04:00,
2013-04-22 17:06:00,70.3,18.9,29.94,NNE,22,11.4,12.3,14,0.00,,---,0.00,VWS V14.00,2013-04-23 00:06:00,
2013-04-22 17:08:00,70.0,18.6,29.94,NNE,22,13.9,17.0,14,0.00,,---,0.00,VWS V14.00,2013-04-23 00:08:00,
2013-04-22 17:09:00,70.2,18.8,29.94,NNE,22,10.3,17.5,14,0.00,,---,0.00,VWS V14.00,2013-04-23 00:09:00,
2013-04-22 17:11:00,70.0,18.6,29.94,NNE,22,12.8,13.4,14,0.00,,---,0.00,VWS V14.00,2013-04-23 00:11:00,
2013-04-22 17:13:00,69.8,18.5,29.94,ENE,68,17.0,17.0,14,0.00,,---,0.00,VWS V14.00,2013-04-23 00:13:00,
2013-04-22 17:14:00,69.8,18.5,29.94,ENE,68,17.0,17.0,14,0.00,,---,0.00,VWS V14.00,2013-04-23 00:14:00,
2013-04-22 17:15:00,69.8,18.5,29.94,ENE,68,17.0,17.0,14,0.00,,---,0.00,VWS V14.00,2013-04-23 00:15:00,
2013-04-22 17:16:00,69.8,18.5,29.94,ENE,68,17.0,17.0,14,0.00,,---,0.00,VWS V14.00,2013-04-23 00:16:00,
2013-04-22 17:18:00,70.7,19.2,29.94,NNE,22,7.8,17.0,14,0.00,,---,0.00,VWS V14.00,2013-04-23 00:18:00,
2013-04-22 17:19:00,70.2,18.8,29.94,NNE,22,13.0,17.7,14,0.00,,---,0.00,VWS V14.00,2013-04-23 00:19:00,
2013-04-22 17:20:00,70.2,18.8,29.94,NNE,22,13.0,17.7,14,0.00,,---,0.00,VWS V14.00,2013-04-23 00:20:00,
2013-04-22 17:21:00,70.2,18.8,29.94,North,0,13.0,14.8,14,0.00,,---,0.00,VWS V14.00,2013-04-23 00:21:00,
2013-04-22 17:23:00,69.4,19.8,29.94,NNE,22,14.8,16.6,15,0.00,,---,0.00,VWS V14.00,2013-04-23 00:23:00,
2013-04-22 17:24:00,69.4,19.8,29.94,NE,45,13.0,16.6,15,0.00,,---,0.00,VWS V14.00,2013-04-23 00:24:00,
2013-04-22 17:25:00,69.4,19.8,29.94,NE,45,13.0,16.6,15,0.00,,---,0.00,VWS V14.00,2013-04-23 00:25:00,
2013-04-22 17:26:00,69.4,19.8,29.94,NNE,22,14.3,14.3,15,0.00,,---,0.00,VWS V14.00,2013-04-23 00:26:00,
2013-04-22 17:28:00,68.9,19.4,29.94,NNE,22,18.6,19.2,15,0.00,,---,0.00,VWS V14.00,2013-04-23 00:28:00,
2013-04-22 17:29:00,68.7,19.2,29.94,NNE,22,13.9,19.2,15,0.00,,---,0.00,VWS V14.00,2013-04-23 00:29:00,
2013-04-22 17:30:00,68.7,19.2,29.94,NNE,22,13.9,19.2,15,0.00,,---,0.00,VWS V14.00,2013-04-23 00:30:00,
2013-04-22 17:31:00,68.4,19.0,29.94,NE,45,13.0,17.2,15,0.00,,---,0.00,VWS V14.00,2013-04-23 00:31:00,
2013-04-22 17:33:00,68.2,18.8,29.94,ENE,68,15.2,17.5,15,0.00,,---,0.00,VWS V14.00,2013-04-23 00:33:00,
2013-04-22 17:34:00,68.4,19.0,29.94,NE,45,10.1,17.5,15,0.00,,---,0.00,VWS V14.00,2013-04-23 00:34:00,
2013-04-22 17:35:00,68.2,18.8,29.94,NNE,22,12.5,14.8,15,0.00,,---,0.00,VWS V14.00,2013-04-23 00:35:00,
2013-04-22 17:36:00,68.0,18.7,29.94,NE,45,13.9,17.5,15,0.00,,---,0.00,VWS V14.00,2013-04-23 00:36:00,
2013-04-22 17:38:00,68.4,19.0,29.94,NE,45,15.2,17.9,15,0.00,,---,0.00,VWS V14.00,2013-04-23 00:38:00,
2013-04-22 17:39:00,68.4,19.0,29.94,North,0,10.7,17.9,15,0.00,,---,0.00,VWS V14.00,2013-04-23 00:39:00,
2013-04-22 17:40:00,68.0,18.7,29.94,NE,45,15.2,17.9,15,0.00,,---,0.00,VWS V14.00,2013-04-23 00:40:00,
2013-04-22 17:41:00,68.0,18.7,29.94,NNE,22,15.2,18.6,15,0.00,,---,0.00,VWS V14.00,2013-04-23 00:41:00,
2013-04-22 17:43:00,68.0,18.7,29.94,NE,45,12.5,18.6,15,0.00,,---,0.00,VWS V14.00,2013-04-23 00:43:00,
2013-04-22 17:45:00,67.8,18.5,29.94,NNE,22,15.2,18.6,15,0.00,,---,0.00,VWS V14.00,2013-04-23 00:45:00,
2013-04-22 17:47:00,67.6,18.4,29.94,East,90,19.5,19.5,15,0.00,,---,0.00,VWS V14.00,2013-04-23 00:47:00,
2013-04-22 17:48:00,67.3,18.1,29.94,NE,45,8.5,19.5,15,0.00,,---,0.00,VWS V14.00,2013-04-23 00:48:00,
2013-04-22 17:50:00,67.1,17.9,29.94,NE,45,13.2,19.5,15,0.00,,---,0.00,VWS V14.00,2013-04-23 00:50:00,
2013-04-22 17:51:00,66.9,17.8,29.94,NNE,22,12.8,18.6,15,0.00,,---,0.00,VWS V14.00,2013-04-23 00:51:00,
2013-04-22 17:52:00,67.1,17.9,29.94,NNE,22,10.5,18.6,15,0.00,,---,0.00,VWS V14.00,2013-04-23 00:52:00,
2013-04-22 17:53:00,67.3,18.1,29.94,ENE,68,12.5,18.6,15,0.00,,---,0.00,VWS V14.00,2013-04-23 00:53:00,
2013-04-22 17:55:00,67.1,17.9,29.94,NNE,22,11.0,18.6,15,0.00,,---,0.00,VWS V14.00,2013-04-23 00:55:00,
2013-04-22 17:56:00,67.1,17.9,29.94,NNE,22,17.2,17.2,15,0.00,,---,0.00,VWS V14.00,2013-04-23 00:56:00,
2013-04-22 17:57:00,67.1,17.9,29.94,NE,45,12.8,17.2,15,0.00,,---,0.00,VWS V14.00,2013-04-23 00:57:00,
2013-04-22 17:59:00,67.1,17.9,29.94,NNE,22,12.8,17.2,15,0.00,,---,0.00,VWS V14.00,2013-04-23 00:59:00,
2013-04-22 18:00:00,66.4,17.4,29.97,NNE,22,11.0,17.2,15,0.00,,---,0.00,VWS V14.00,2013-04-23 01:00:00,
2013-04-22 18:01:00,66.4,17.4,29.97,ENE,68,13.0,13.0,15,0.00,,---,0.00,VWS V14.00,2013-04-23 01:01:00,
2013-04-22 18:02:00,66.4,17.4,29.97,NE,45,13.0,13.0,15,0.00,,---,0.00,VWS V14.00,2013-04-23 01:02:00,
2013-04-22 18:04:00,66.6,17.5,29.97,NE,45,8.1,13.0,15,0.00,,---,0.00,VWS V14.00,2013-04-23 01:04:00,
2013-04-22 18:05:00,66.6,17.5,29.97,NE,45,12.3,13.0,15,0.00,,---,0.00,VWS V14.00,2013-04-23 01:05:00,
2013-04-22 18:06:00,66.6,17.5,29.97,NE,45,13.2,13.2,15,0.00,,---,0.00,VWS V14.00,2013-04-23 01:06:00,
2013-04-22 18:07:00,66.4,17.4,29.97,NNE,22,18.6,18.6,15,0.00,,---,0.00,VWS V14.00,2013-04-23 01:07:00,
2013-04-22 18:09:00,65.8,16.9,29.97,NNE,22,15.4,18.6,15,0.00,,---,0.00,VWS V14.00,2013-04-23 01:09:00,
2013-04-22 18:10:00,65.5,16.6,29.97,NNE,22,22.4,22.4,15,0.00,,---,0.00,VWS V14.00,2013-04-23 01:10:00,
2013-04-22 18:11:00,65.5,16.6,29.97,NNE,22,22.4,22.4,15,0.00,,---,0.00,VWS V14.00,2013-04-23 01:11:00,
2013-04-22 18:12:00,65.3,16.5,29.97,NE,45,12.5,22.4,15,0.00,,---,0.00,VWS V14.00,2013-04-23 01:12:00,
2013-04-22 18:14:00,65.3,16.5,29.97,NNE,22,13.9,22.4,15,0.00,,---,0.00,VWS V14.00,2013-04-23 01:14:00,
2013-04-22 18:15:00,65.3,16.5,29.97,ENE,68,15.4,15.4,15,0.00,,---,0.00,VWS V14.00,2013-04-23 01:15:00,
2013-04-22 18:16:00,65.3,16.5,29.97,East,90,15.2,15.4,15,0.00,,---,0.00,VWS V14.00,2013-04-23 01:16:00,
2013-04-22 18:17:00,65.3,16.5,29.97,NE,45,10.7,15.4,15,0.00,,---,0.00,VWS V14.00,2013-04-23 01:17:00,
2013-04-22 18:19:00,65.7,16.8,29.97,NE,45,9.6,15.4,15,0.00,,---,0.00,VWS V14.00,2013-04-23 01:19:00,
2013-04-22 18:21:00,65.5,16.6,29.97,NE,45,10.3,12.1,15,0.00,,---,0.00,VWS V14.00,2013-04-23 01:21:00,
2013-04-22 18:22:00,65.1,16.4,29.97,ENE,68,9.8,19.5,15,0.00,,---,0.00,VWS V14.00,2013-04-23 01:22:00,
2013-04-22 18:23:00,65.1,16.4,29.97,ENE,68,13.0,19.5,15,0.00,,---,0.00,VWS V14.00,2013-04-23 01:23:00,
2013-04-22 18:24:00,65.1,16.4,29.97,NE,45,10.7,19.5,15,0.00,,---,0.00,VWS V14.00,2013-04-23 01:24:00,
2013-04-22 18:26:00,64.8,16.1,29.97,NNE,22,12.3,12.5,15,0.00,,---,0.00,VWS V14.00,2013-04-23 01:26:00,
2013-04-22 18:27:00,64.6,15.9,29.97,NNE,22,13.0,14.5,15,0.00,,---,0.00,VWS V14.00,2013-04-23 01:27:00,
2013-04-22 18:28:00,64.6,15.9,30.00,East,90,10.3,14.5,15,0.00,,---,0.00,VWS V14.00,2013-04-23 01:28:00,
2013-04-22 18:29:00,64.6,15.9,30.00,NNE,22,10.3,14.5,15,0.00,,---,0.00,VWS V14.00,2013-04-23 01:29:00,
2013-04-22 18:31:00,64.4,15.8,30.00,NE,45,12.1,14.3,15,0.00,,---,0.00,VWS V14.00,2013-04-23 01:31:00,
2013-04-22 18:32:00,64.4,15.8,30.00,ENE,68,10.3,14.3,15,0.00,,---,0.00,VWS V14.00,2013-04-23 01:32:00,
2013-04-22 18:33:00,64.6,15.9,30.00,East,90,7.8,14.3,15,0.00,,---,0.00,VWS V14.00,2013-04-23 01:33:00,
2013-04-22 18:34:00,64.4,15.8,30.00,NNE,22,14.8,14.8,15,0.00,,---,0.00,VWS V14.00,2013-04-23 01:34:00,
2013-04-22 18:36:00,64.2,17.1,30.00,NNE,22,17.2,17.2,16,0.00,,---,0.00,VWS V14.00,2013-04-23 01:36:00,
2013-04-22 18:37:00,64.0,17.0,30.00,NE,45,17.5,17.5,16,0.00,,---,0.00,VWS V14.00,2013-04-23 01:37:00,
2013-04-22 18:38:00,63.9,16.8,30.00,ENE,68,14.5,21.3,16,0.00,,---,0.00,VWS V14.00,2013-04-23 01:38:00,
2013-04-22 18:39:00,63.5,16.5,30.00,NE,45,10.5,21.3,16,0.00,,---,0.00,VWS V14.00,2013-04-23 01:39:00,
2013-04-22 18:41:00,63.7,16.7,30.00,NE,45,13.0,13.0,16,0.00,,---,0.00,VWS V14.00,2013-04-23 01:41:00,
2013-04-22 18:42:00,63.7,16.7,30.00,NNE,22,11.4,13.0,16,0.00,,---,0.00,VWS V14.00,2013-04-23 01:42:00,
2013-04-22 18:43:00,63.5,16.5,30.00,NNE,22,12.8,13.0,16,0.00,,---,0.00,VWS V14.00,2013-04-23 01:43:00,
2013-04-22 18:44:00,63.5,16.5,30.00,NE,45,10.5,13.2,16,0.00,,---,0.00,VWS V14.00,2013-04-23 01:44:00,
2013-04-22 18:46:00,63.3,16.4,30.00,NE,45,12.8,12.8,16,0.00,,---,0.00,VWS V14.00,2013-04-23 01:46:00,
2013-04-22 18:47:00,63.1,16.2,30.00,ENE,68,7.4,14.3,16,0.00,,---,0.00,VWS V14.00,2013-04-23 01:47:00,
2013-04-22 18:48:00,63.1,16.2,30.00,NE,45,12.5,15.7,16,0.00,,---,0.00,VWS V14.00,2013-04-23 01:48:00,
2013-04-22 18:49:00,63.0,16.1,30.00,NE,45,11.0,15.7,16,0.00,,---,0.00,VWS V14.00,2013-04-23 01:49:00,
2013-04-22 18:51:00,62.6,15.8,30.00,NE,45,12.3,13.2,16,0.00,,---,0.00,VWS V14.00,2013-04-23 01:51:00,
2013-04-22 18:52:00,62.6,15.8,30.00,NE,45,11.2,13.2,16,0.00,,---,0.00,VWS V14.00,2013-04-23 01:52:00,
2013-04-22 18:53:00,62.6,15.8,30.00,NE,45,11.2,13.2,16,0.00,,---,0.00,VWS V14.00,2013-04-23 01:53:00,
2013-04-22 18:54:00,62.6,15.8,30.00,NE,45,9.6,13.2,16,0.00,,---,0.00,VWS V14.00,2013-04-23 01:54:00,
2013-04-22 18:57:00,62.2,15.5,30.00,ENE,68,12.3,13.0,16,0.00,,---,0.00,VWS V14.00,2013-04-23 01:57:00,
2013-04-22 18:58:00,62.2,15.5,30.03,NNE,22,11.9,13.0,16,0.00,,---,0.00,VWS V14.00,2013-04-23 01:58:00,
2013-04-22 18:59:00,62.1,15.4,30.03,NE,45,13.6,14.1,16,0.00,,---,0.00,VWS V14.00,2013-04-23 01:59:00,
2013-04-22 19:02:00,62.1,15.4,30.03,NNE,22,12.3,12.3,16,0.00,,---,0.00,VWS V14.00,2013-04-23 02:02:00,
2013-04-22 19:03:00,62.1,15.4,30.03,NE,45,12.8,12.8,16,0.00,,---,0.00,VWS V14.00,2013-04-23 02:03:00,
2013-04-22 19:04:00,62.1,15.4,30.03,NE,45,11.4,12.8,16,0.00,,---,0.00,VWS V14.00,2013-04-23 02:04:00,
2013-04-22 19:07:00,62.1,15.4,30.03,NNE,22,14.5,14.5,16,0.00,,---,0.00,VWS V14.00,2013-04-23 02:07:00,
2013-04-22 19:08:00,62.1,15.4,30.03,NNE,22,14.5,14.5,16,0.00,,---,0.00,VWS V14.00,2013-04-23 02:08:00,
2013-04-22 19:09:00,61.5,14.9,30.03,NE,45,8.5,14.5,16,0.00,,---,0.00,VWS V14.00,2013-04-23 02:09:00,
2013-04-22 19:12:00,61.0,14.5,30.03,NE,45,13.6,14.8,16,0.00,,---,0.00,VWS V14.00,2013-04-23 02:12:00,
2013-04-22 19:13:00,61.0,14.5,30.00,NE,45,14.3,16.8,16,0.00,,---,0.00,VWS V14.00,2013-04-23 02:13:00,
2013-04-22 19:14:00,61.0,14.5,30.00,NE,45,13.2,16.8,16,0.00,,---,0.00,VWS V14.00,2013-04-23 02:14:00,
2013-04-22 19:17:00,60.3,15.3,30.00,ENE,68,12.3,13.2,17,0.00,,---,0.00,VWS V14.00,2013-04-23 02:17:00,
2013-04-22 19:18:00,60.3,15.3,30.00,NE,45,18.6,18.6,17,0.00,,---,0.00,VWS V14.00,2013-04-23 02:18:00,
2013-04-22 19:20:00,59.9,15.0,30.00,ENE,68,10.5,18.6,17,0.00,,---,0.00,VWS V14.00,2013-04-23 02:20:00,
2013-04-22 19:22:00,59.9,15.0,30.00,NNE,22,12.8,13.2,17,0.00,,---,0.00,VWS V14.00,2013-04-23 02:22:00,
2013-04-22 19:23:00,59.7,14.9,30.00,NE,45,12.5,14.8,17,0.00,,---,0.00,VWS V14.00,2013-04-23 02:23:00,
2013-04-22 19:25:00,59.7,14.9,30.00,ENE,68,19.9,19.9,17,0.00,,---,0.00,VWS V14.00,2013-04-23 02:25:00,
2013-04-22 19:27:00,59.4,14.6,30.00,NNE,22,10.7,19.9,17,0.00,,---,0.00,VWS V14.00,2013-04-23 02:27:00,
2013-04-22 19:28:00,59.2,14.4,30.00,East,90,14.8,19.9,17,0.00,,---,0.00,VWS V14.00,2013-04-23 02:28:00,
2013-04-22 19:29:00,59.2,14.4,30.00,NE,45,9.2,19.9,17,0.00,,---,0.00,VWS V14.00,2013-04-23 02:29:00,
2013-04-22 19:30:00,59.2,14.4,30.00,NE,45,9.2,19.9,17,0.00,,---,0.00,VWS V14.00,2013-04-23 02:30:00,
2013-04-22 19:32:00,58.8,14.1,30.00,NNE,22,13.9,15.4,17,0.00,,---,0.00,VWS V14.00,2013-04-23 02:32:00,
2013-04-22 19:33:00,58.8,14.1,30.00,NE,45,9.2,15.4,17,0.00,,---,0.00,VWS V14.00,2013-04-23 02:33:00,
2013-04-22 19:34:00,58.8,14.1,30.00,NNE,22,14.5,15.4,17,0.00,,---,0.00,VWS V14.00,2013-04-23 02:34:00,
2013-04-22 19:35:00,58.8,14.1,30.00,NNE,22,14.5,15.4,17,0.00,,---,0.00,VWS V14.00,2013-04-23 02:35:00,
2013-04-22 19:37:00,58.5,13.8,30.00,NNE,22,13.0,16.6,17,0.00,,---,0.00,VWS V14.00,2013-04-23 02:37:00,
2013-04-22 19:39:00,58.5,13.8,30.00,NNE,22,17.2,17.7,17,0.00,,---,0.00,VWS V14.00,2013-04-23 02:39:00,
2013-04-22 19:40:00,58.3,13.7,30.00,NNE,22,10.7,17.7,17,0.00,,---,0.00,VWS V14.00,2013-04-23 02:40:00,
2013-04-22 19:42:00,58.3,13.7,30.00,ENE,68,7.6,13.0,17,0.00,,---,0.00,VWS V14.00,2013-04-23 02:42:00,
2013-04-22 19:44:00,58.1,13.5,30.00,NNE,22,10.7,13.2,17,0.00,,---,0.00,VWS V14.00,2013-04-23 02:44:00,
2013-04-22 19:45:00,57.9,13.4,30.00,NNE,22,7.8,13.2,17,0.00,,---,0.00,VWS V14.00,2013-04-23 02:45:00,
2013-04-22 19:47:00,57.9,13.4,30.00,NE,45,12.5,13.0,17,0.00,,---,0.00,VWS V14.00,2013-04-23 02:47:00,
2013-04-22 19:49:00,57.7,13.2,30.00,NE,45,8.1,13.0,17,0.00,,---,0.00,VWS V14.00,2013-04-23 02:49:00,
2013-04-22 19:50:00,57.7,13.2,30.00,NNE,22,9.8,13.0,17,0.00,,---,0.00,VWS V14.00,2013-04-23 02:50:00,
2013-04-22 19:53:00,57.6,13.1,30.00,NNE,22,12.8,12.8,17,0.00,,---,0.00,VWS V14.00,2013-04-23 02:53:00,
2013-04-22 19:54:00,57.6,13.1,30.00,NE,45,12.8,12.8,17,0.00,,---,0.00,VWS V14.00,2013-04-23 02:54:00,
2013-04-22 19:55:00,57.6,13.1,30.00,NNE,22,10.3,12.8,17,0.00,,---,0.00,VWS V14.00,2013-04-23 02:55:00,
2013-04-22 19:58:00,57.4,12.9,30.00,NNE,22,10.7,15.2,17,0.00,,---,0.00,VWS V14.00,2013-04-23 02:58:00,
2013-04-22 20:00:00,57.4,12.9,30.00,NNE,22,7.8,15.2,17,0.00,,---,0.00,VWS V14.00,2013-04-23 03:00:00,
2013-04-22 20:03:00,57.2,12.8,30.00,NE,45,13.2,13.2,17,0.00,,---,0.00,VWS V14.00,2013-04-23 03:03:00,
2013-04-22 20:05:00,57.2,12.8,30.00,NNE,22,12.8,15.2,17,0.00,,---,0.00,VWS V14.00,2013-04-23 03:05:00,
2013-04-22 20:08:00,57.0,12.7,30.00,NE,45,10.7,15.4,17,0.00,,---,0.00,VWS V14.00,2013-04-23 03:08:00,
2013-04-22 20:10:00,57.0,12.7,30.00,NE,45,10.3,15.4,17,0.00,,---,0.00,VWS V14.00,2013-04-23 03:10:00,
2013-04-22 20:11:00,57.0,12.7,30.00,NE,45,10.3,15.4,17,0.00,,---,0.00,VWS V14.00,2013-04-23 03:11:00,
2013-04-22 20:13:00,56.8,12.5,30.03,NE,45,13.0,17.5,17,0.00,,---,0.00,VWS V14.00,2013-04-23 03:13:00,
2013-04-22 20:15:00,56.8,12.5,30.03,NNE,22,11.2,17.5,17,0.00,,---,0.00,VWS V14.00,2013-04-23 03:15:00,
2013-04-22 20:16:00,56.8,12.5,30.03,NE,45,11.4,11.4,17,0.00,,---,0.00,VWS V14.00,2013-04-23 03:16:00,
2013-04-22 20:18:00,56.7,12.4,30.03,NNE,22,10.5,13.0,17,0.00,,---,0.00,VWS V14.00,2013-04-23 03:18:00,
2013-04-22 20:20:00,56.7,12.4,30.03,NNE,22,12.1,13.0,17,0.00,,---,0.00,VWS V14.00,2013-04-23 03:20:00,
2013-04-22 20:21:00,56.7,12.4,30.03,NNE,22,9.8,12.1,17,0.00,,---,0.00,VWS V14.00,2013-04-23 03:21:00,
2013-04-22 20:23:00,56.3,12.1,30.03,NE,45,10.5,12.1,17,0.00,,---,0.00,VWS V14.00,2013-04-23 03:23:00,
2013-04-22 20:25:00,56.3,9.3,30.03,NE,45,8.7,12.3,15,0.00,,---,0.00,VWS V14.00,2013-04-23 03:25:00,
2013-04-22 20:26:00,56.3,9.3,30.03,ENE,68,6.3,12.3,15,0.00,,---,0.00,VWS V14.00,2013-04-23 03:26:00,
2013-04-22 20:28:00,55.6,8.7,30.03,ENE,68,13.9,13.9,15,0.00,,---,0.00,VWS V14.00,2013-04-23 03:28:00,
2013-04-22 20:30:00,55.6,8.7,30.03,ENE,68,10.3,13.9,15,0.00,,---,0.00,VWS V14.00,2013-04-23 03:30:00,
2013-04-22 20:31:00,55.6,8.7,30.03,ENE,68,10.3,13.9,15,0.00,,---,0.00,VWS V14.00,2013-04-23 03:31:00,
2013-04-22 20:34:00,55.2,8.4,30.03,NNE,22,10.7,13.9,15,0.00,,---,0.00,VWS V14.00,2013-04-23 03:34:00,
2013-04-22 20:35:00,55.2,8.4,30.03,ENE,68,10.7,13.9,15,0.00,,---,0.00,VWS V14.00,2013-04-23 03:35:00,
2013-04-22 20:36:00,55.0,8.2,30.03,East,90,10.7,11.0,15,0.00,,---,0.00,VWS V14.00,2013-04-23 03:36:00,
2013-04-22 20:37:00,55.0,8.2,30.03,East,90,8.1,11.0,15,0.00,,---,0.00,VWS V14.00,2013-04-23 03:37:00,
2013-04-22 20:39:00,54.9,8.1,30.03,NE,45,8.7,13.2,15,0.00,,---,0.00,VWS V14.00,2013-04-23 03:39:00,
2013-04-22 20:40:00,54.7,8.0,30.03,ENE,68,7.8,8.1,15,0.00,,---,0.00,VWS V14.00,2013-04-23 03:40:00,
2013-04-22 20:41:00,54.5,7.8,30.03,ENE,68,9.4,10.7,15,0.00,,---,0.00,VWS V14.00,2013-04-23 03:41:00,
2013-04-22 20:42:00,54.5,7.8,30.03,ENE,68,9.4,10.7,15,0.00,,---,0.00,VWS V14.00,2013-04-23 03:42:00,
2013-04-22 20:44:00,54.3,7.7,30.06,NE,45,8.1,10.7,15,0.00,,---,0.00,VWS V14.00,2013-04-23 03:44:00,
2013-04-22 20:46:00,54.3,7.7,30.06,NE,45,12.5,13.0,15,0.00,,---,0.00,VWS V14.00,2013-04-23 03:46:00,
2013-04-22 20:47:00,54.3,7.7,30.06,ENE,68,10.5,13.0,15,0.00,,---,0.00,VWS V14.00,2013-04-23 03:47:00,
2013-04-22 20:50:00,54.1,7.5,30.06,East,90,9.8,14.1,15,0.00,,---,0.00,VWS V14.00,2013-04-23 03:50:00,
2013-04-22 20:51:00,54.1,7.5,30.06,East,90,9.2,12.5,15,0.00,,---,0.00,VWS V14.00,2013-04-23 03:51:00,
2013-04-22 20:52:00,54.1,7.5,30.06,East,90,9.2,12.5,15,0.00,,---,0.00,VWS V14.00,2013-04-23 03:52:00,
2013-04-22 20:55:00,54.1,7.5,30.06,ENE,68,6.7,13.2,15,0.00,,---,0.00,VWS V14.00,2013-04-23 03:55:00,
2013-04-22 20:56:00,53.8,7.2,30.06,NE,45,7.6,9.8,15,0.00,,---,0.00,VWS V14.00,2013-04-23 03:56:00,
2013-04-22 20:57:00,53.8,7.2,30.06,NE,45,8.5,10.7,15,0.00,,---,0.00,VWS V14.00,2013-04-23 03:57:00,
2013-04-22 21:00:00,53.6,7.1,30.06,NE,45,12.3,13.2,15,0.00,,---,0.00,VWS V14.00,2013-04-23 04:00:00,
2013-04-22 21:01:00,53.6,7.1,30.06,NE,45,9.8,13.2,15,0.00,,---,0.00,VWS V14.00,2013-04-23 04:01:00,
2013-04-22 21:06:00,53.4,8.4,30.06,NNE,22,12.5,13.9,16,0.00,,---,0.00,VWS V14.00,2013-04-23 04:06:00,
2013-04-22 21:11:00,53.1,8.1,30.06,NE,45,10.1,15.4,16,0.00,,---,0.00,VWS V14.00,2013-04-23 04:11:00,
2013-04-22 21:16:00,53.1,8.1,30.06,NE,45,13.9,15.4,16,0.00,,---,0.00,VWS V14.00,2013-04-23 04:16:00,
2013-04-22 21:17:00,52.7,7.8,30.06,NE,45,10.5,13.9,16,0.00,,---,0.00,VWS V14.00,2013-04-23 04:17:00,
2013-04-22 21:21:00,52.5,7.6,30.06,ENE,68,13.0,13.9,16,0.00,,---,0.00,VWS V14.00,2013-04-23 04:21:00,
2013-04-22 21:22:00,52.5,7.6,30.06,NE,45,7.8,13.9,16,0.00,,---,0.00,VWS V14.00,2013-04-23 04:22:00,
2013-04-22 21:26:00,52.2,7.3,30.06,NE,45,9.4,10.3,16,0.00,,---,0.00,VWS V14.00,2013-04-23 04:26:00,
2013-04-22 21:27:00,52.2,7.3,30.06,NE,45,7.6,10.3,16,0.00,,---,0.00,VWS V14.00,2013-04-23 04:27:00,
2013-04-22 21:31:00,52.0,7.2,30.03,NE,45,8.5,10.7,16,0.00,,---,0.00,VWS V14.00,2013-04-23 04:31:00,
2013-04-22 21:32:00,52.0,7.2,30.03,NE,45,8.5,10.7,16,0.00,,---,0.00,VWS V14.00,2013-04-23 04:32:00,
2013-04-22 21:36:00,51.8,7.1,30.03,ENE,68,12.5,13.2,16,0.00,,---,0.00,VWS V14.00,2013-04-23 04:36:00,
2013-04-22 21:37:00,51.8,7.1,30.03,ENE,68,12.5,13.2,16,0.00,,---,0.00,VWS V14.00,2013-04-23 04:37:00,
2013-04-22 21:42:00,51.6,6.9,30.03,NNE,22,12.1,13.2,16,0.00,,---,0.00,VWS V14.00,2013-04-23 04:42:00,
2013-04-22 21:47:00,51.4,6.8,30.06,ENE,68,13.4,13.9,16,0.00,,---,0.00,VWS V14.00,2013-04-23 04:47:00,
2013-04-22 21:48:00,51.4,6.8,30.06,ENE,68,10.7,13.9,16,0.00,,---,0.00,VWS V14.00,2013-04-23 04:48:00,
2013-04-22 21:52:00,51.3,6.6,30.06,NNE,22,11.0,13.9,16,0.00,,---,0.00,VWS V14.00,2013-04-23 04:52:00,
2013-04-22 21:53:00,51.3,6.6,30.06,NE,45,6.3,13.9,16,0.00,,---,0.00,VWS V14.00,2013-04-23 04:53:00,
2013-04-22 21:57:00,50.9,6.3,30.06,NNE,22,5.4,7.6,16,0.00,,---,0.00,VWS V14.00,2013-04-23 04:57:00,
2013-04-22 21:58:00,50.9,6.3,30.06,NNE,22,5.4,7.6,16,0.00,,---,0.00,VWS V14.00,2013-04-23 04:58:00,
2013-04-22 22:02:00,50.7,6.2,30.06,NNE,22,8.1,14.3,16,0.00,,---,0.00,VWS V14.00,2013-04-23 05:02:00,
2013-04-22 22:03:00,50.7,6.2,30.06,NNE,22,8.1,14.3,16,0.00,,---,0.00,VWS V14.00,2013-04-23 05:03:00,
2013-04-22 22:07:00,50.4,5.9,30.06,ENE,68,13.2,13.2,16,0.00,,---,0.00,VWS V14.00,2013-04-23 05:07:00,
2013-04-22 22:08:00,50.4,5.9,30.06,ENE,68,13.2,13.2,16,0.00,,---,0.00,VWS V14.00,2013-04-23 05:08:00,
2013-04-22 22:13:00,50.0,5.6,30.06,NE,45,8.1,11.0,16,0.00,,---,0.00,VWS V14.00,2013-04-23 05:13:00,
2013-04-22 22:18:00,49.8,5.4,30.06,NNE,22,8.5,12.5,16,0.00,,---,0.00,VWS V14.00,2013-04-23 05:18:00,
2013-04-22 22:23:00,49.1,4.9,30.06,ENE,68,8.5,9.8,16,0.00,,---,0.00,VWS V14.00,2013-04-23 05:23:00,
2013-04-22 22:24:00,49.1,4.9,30.06,NNE,22,6.0,9.8,16,0.00,,---,0.00,VWS V14.00,2013-04-23 05:24:00,
2013-04-22 22:28:00,49.1,4.9,30.09,NE,45,9.0,10.1,16,0.00,,---,0.00,VWS V14.00,2013-04-23 05:28:00,
2013-04-22 22:30:00,48.9,4.7,30.09,NNE,22,5.8,10.1,16,0.00,,---,0.00,VWS V14.00,2013-04-23 05:30:00,
2013-04-22 22:33:00,48.9,4.7,30.09,ENE,68,6.9,7.2,16,0.00,,---,0.00,VWS V14.00,2013-04-23 05:33:00,
2013-04-22 22:34:00,48.7,4.6,30.09,NE,45,6.5,9.8,16,0.00,,---,0.00,VWS V14.00,2013-04-23 05:34:00,
2013-04-22 22:35:00,48.7,4.6,30.09,NE,45,5.4,9.8,16,0.00,,---,0.00,VWS V14.00,2013-04-23 05:35:00,
2013-04-22 22:38:00,48.6,4.4,30.09,ENE,68,6.0,7.6,16,0.00,,---,0.00,VWS V14.00,2013-04-23 05:38:00,
2013-04-22 22:39:00,48.6,4.4,30.09,NE,45,10.7,10.7,16,0.00,,---,0.00,VWS V14.00,2013-04-23 05:39:00,
2013-04-22 22:40:00,48.6,4.4,30.09,ENE,68,12.5,12.5,16,0.00,,---,0.00,VWS V14.00,2013-04-23 05:40:00,
2013-04-22 22:43:00,48.6,4.4,30.12,ENE,68,8.1,10.5,16,0.00,,---,0.00,VWS V14.00,2013-04-23 05:43:00,
2013-04-22 22:44:00,48.6,4.4,30.12,NE,45,7.4,10.5,16,0.00,,---,0.00,VWS V14.00,2013-04-23 05:44:00,
2013-04-22 22:45:00,48.6,4.4,30.12,NE,45,7.4,10.5,16,0.00,,---,0.00,VWS V14.00,2013-04-23 05:45:00,
2013-04-22 22:48:00,48.4,4.3,30.12,NE,45,9.0,11.0,16,0.00,,---,0.00,VWS V14.00,2013-04-23 05:48:00,
2013-04-22 22:49:00,48.4,4.3,30.12,NE,45,8.1,11.0,16,0.00,,---,0.00,VWS V14.00,2013-04-23 05:49:00,
2013-04-22 22:50:00,48.4,4.3,30.12,NE,45,8.1,8.1,16,0.00,,---,0.00,VWS V14.00,2013-04-23 05:50:00,
2013-04-22 22:53:00,48.4,4.3,30.12,ENE,68,6.5,8.1,16,0.00,,---,0.00,VWS V14.00,2013-04-23 05:53:00,
2013-04-22 22:54:00,48.4,4.3,30.12,NE,45,5.6,8.1,16,0.00,,---,0.00,VWS V14.00,2013-04-23 05:54:00,
2013-04-22 22:56:00,48.0,5.3,30.12,ENE,68,7.6,8.1,17,0.00,,---,0.00,VWS V14.00,2013-04-23 05:56:00,
2013-04-22 22:58:00,47.8,5.2,30.09,ENE,68,7.8,7.8,17,0.00,,---,0.00,VWS V14.00,2013-04-23 05:58:00,
2013-04-22 22:59:00,47.8,5.2,30.09,NNE,22,5.8,7.8,17,0.00,,---,0.00,VWS V14.00,2013-04-23 05:59:00,
2013-04-22 23:01:00,47.7,5.0,30.09,NE,45,3.4,4.0,17,0.00,,---,0.00,VWS V14.00,2013-04-23 06:01:00,
2013-04-22 23:03:00,47.7,5.0,30.09,NNE,22,10.3,10.3,17,0.00,,---,0.00,VWS V14.00,2013-04-23 06:03:00,
2013-04-22 23:04:00,47.7,5.0,30.09,NNE,22,10.3,10.3,17,0.00,,---,0.00,VWS V14.00,2013-04-23 06:04:00,
2013-04-22 23:06:00,47.7,5.0,30.09,NE,45,4.9,10.3,17,0.00,,---,0.00,VWS V14.00,2013-04-23 06:06:00,
2013-04-22 23:08:00,47.5,4.8,30.09,ENE,68,7.4,8.1,17,0.00,,---,0.00,VWS V14.00,2013-04-23 06:08:00,
2013-04-22 23:09:00,47.5,4.8,30.09,NNE,22,7.8,8.1,17,0.00,,---,0.00,VWS V14.00,2013-04-23 06:09:00,
2013-04-22 23:11:00,47.3,4.7,30.09,NNE,22,6.9,6.9,17,0.00,,---,0.00,VWS V14.00,2013-04-23 06:11:00,
2013-04-22 23:13:00,47.3,4.7,30.12,NE,45,4.3,6.9,17,0.00,,---,0.00,VWS V14.00,2013-04-23 06:13:00,
2013-04-22 23:14:00,47.3,4.7,30.12,NE,45,4.3,6.9,17,0.00,,---,0.00,VWS V14.00,2013-04-23 06:14:00,
2013-04-22 23:16:00,47.1,4.6,30.12,NE,45,6.0,6.0,17,0.00,,---,0.00,VWS V14.00,2013-04-23 06:16:00,
2013-04-22 23:19:00,46.9,4.4,30.12,ENE,68,3.1,7.6,17,0.00,,---,0.00,VWS V14.00,2013-04-23 06:19:00,
2013-04-22 23:20:00,46.9,4.4,30.12,ENE,68,3.1,7.6,17,0.00,,---,0.00,VWS V14.00,2013-04-23 06:20:00,
2013-04-22 23:21:00,46.9,4.4,30.12,ENE,68,4.3,5.6,17,0.00,,---,0.00,VWS V14.00,2013-04-23 06:21:00,
2013-04-22 23:24:00,46.8,4.3,30.12,NNE,22,3.8,7.8,17,0.00,,---,0.00,VWS V14.00,2013-04-23 06:24:00,
2013-04-22 23:25:00,46.8,4.3,30.12,NNE,22,3.8,7.8,17,0.00,,---,0.00,VWS V14.00,2013-04-23 06:25:00,
2013-04-22 23:26:00,46.8,4.3,30.12,ENE,68,4.0,4.0,17,0.00,,---,0.00,VWS V14.00,2013-04-23 06:26:00,
2013-04-22 23:29:00,46.6,4.1,30.12,NE,45,3.6,4.0,17,0.00,,---,0.00,VWS V14.00,2013-04-23 06:29:00,
2013-04-22 23:30:00,46.6,4.1,30.12,NE,45,3.6,4.0,17,0.00,,---,0.00,VWS V14.00,2013-04-23 06:30:00,
2013-04-22 23:31:00,46.6,4.1,30.12,NE,45,4.3,7.2,17,0.00,,---,0.00,VWS V14.00,2013-04-23 06:31:00,
2013-04-22 23:34:00,46.6,4.1,30.12,North,0,8.1,8.1,17,0.00,,---,0.00,VWS V14.00,2013-04-23 06:34:00,
2013-04-22 23:35:00,46.6,4.1,30.12,NNE,22,9.0,9.0,17,0.00,,---,0.00,VWS V14.00,2013-04-23 06:35:00,
2013-04-22 23:36:00,46.8,4.3,30.12,NE,45,5.8,8.7,17,0.00,,---,0.00,VWS V14.00,2013-04-23 06:36:00,
2013-04-22 23:39:00,46.8,4.3,30.12,NNE,22,5.6,8.7,17,0.00,,---,0.00,VWS V14.00,2013-04-23 06:39:00,
2013-04-22 23:40:00,46.8,4.3,30.12,NNE,22,5.6,8.7,17,0.00,,---,0.00,VWS V14.00,2013-04-23 06:40:00,
2013-04-22 23:41:00,46.8,4.3,30.12,ENE,68,7.6,8.5,17,0.00,,---,0.00,VWS V14.00,2013-04-23 06:41:00,
2013-04-22 23:42:00,46.8,4.3,30.12,NE,45,8.5,8.5,17,0.00,,---,0.00,VWS V14.00,2013-04-23 06:42:00,
2013-04-22 23:44:00,46.9,4.4,30.12,NNE,22,8.7,8.7,17,0.00,,---,0.00,VWS V14.00,2013-04-23 06:44:00,
2013-04-22 23:45:00,46.9,4.4,30.12,NNE,22,6.3,8.7,17,0.00,,---,0.00,VWS V14.00,2013-04-23 06:45:00,
2013-04-22 23:46:00,46.9,4.4,30.12,NNE,22,6.0,6.3,17,0.00,,---,0.00,VWS V14.00,2013-04-23 06:46:00,
2013-04-22 23:47:00,46.9,4.4,30.12,NNE,22,6.0,6.3,17,0.00,,---,0.00,VWS V14.00,2013-04-23 06:47:00,
2013-04-22 23:50:00,46.8,4.3,30.12,NNE,22,7.4,9.8,17,0.00,,---,0.00,VWS V14.00,2013-04-23 06:50:00,
2013-04-22 23:51:00,46.8,4.3,30.12,NE,45,5.6,6.0,17,0.00,,---,0.00,VWS V14.00,2013-04-23 06:51:00,
2013-04-22 23:52:00,46.8,4.3,30.12,NE,45,5.6,6.0,17,0.00,,---,0.00,VWS V14.00,2013-04-23 06:52:00,
2013-04-22 23:55:00,46.6,4.1,30.12,ENE,68,3.8,7.2,17,0.00,,---,0.00,VWS V14.00,2013-04-23 06:55:00,
2013-04-22 23:56:00,46.6,4.1,30.12,ENE,68,5.6,5.6,17,0.00,,---,0.00,VWS V14.00,2013-04-23 06:56:00,
2013-04-22 23:57:00,46.6,4.1,30.12,ENE,68,4.3,5.6,17,0.00,,---,0.00,VWS V14.00,2013-04-23 06:57:00,